Observation data for JA Ranch on 05/26/2019      Previous  Date  Next       Current Mesonet Observations  Soil Data  Daily Summary Page  Observations in Plain Language
KPD3 260500Z 19002KT 16/15 A2996 RMK A01 T01610154  RH  096%=      5-min Rain = 0
KPD3 260501Z 20002KT 16/15 A2996 RMK A01 T01610154  RH  096%=      5-min Rain = 0
KPD3 260502Z 21001KT 16/15 A2996 RMK A01 T01620154  RH  095%=      5-min Rain = 0
KPD3 260503Z 20002KT 16/15 A2996 RMK A01 T01620154  RH  095%=      5-min Rain = 0
KPD3 260504Z 22001KT 16/15 A2996 RMK A01 T01620153  RH  095%=      5-min Rain = 0
KPD3 260505Z 23001KT 16/15 A2996 RMK A01 T01610152  RH  094%=      5-min Rain = 0
KPD3 260506Z 24002KT 16/15 A2996 RMK A01 T01600151  RH  094%=      5-min Rain = 0
KPD3 260507Z 26002KT 16/15 A2996 RMK A01 T01590150  RH  094%=      5-min Rain = 0
KPD3 260508Z 26003KT 16/15 A2996 RMK A01 T01580149  RH  094%=      5-min Rain = 0
KPD3 260509Z 26003KT 16/15 A2996 RMK A01 T01570148  RH  094%=      5-min Rain = 0
KPD3 260510Z 27003KT 16/15 A2996 RMK A01 T01560148  RH  095%=      5-min Rain = 0
KPD3 260511Z 26003KT 16/15 A2996 RMK A01 T01560148  RH  095%=      5-min Rain = 0
KPD3 260512Z 26003KT 16/15 A2996 RMK A01 T01550148  RH  095%=      5-min Rain = 0
KPD3 260513Z 26004KT 16/15 A2996 RMK A01 T01550148  RH  096%=      5-min Rain = 0
KPD3 260514Z 25004KT 16/15 A2996 RMK A01 T01550148  RH  096%=      5-min Rain = 0
KPD3 260515Z 25004KT 16/15 A2996 RMK A01 T01550149  RH  096%=      5-min Rain = 0
KPD3 260516Z 25003KT 16/15 A2995 RMK A01 T01550149  RH  096%=      5-min Rain = 0
KPD3 260517Z 24004KT 16/15 A2995 RMK A01 T01550149  RH  096%=      5-min Rain = 0
KPD3 260518Z 24003KT 16/15 A2995 RMK A01 T01550149  RH  096%=      5-min Rain = 0
KPD3 260519Z 24003KT 16/15 A2995 RMK A01 T01550150  RH  096%=      5-min Rain = 0
KPD3 260520Z 24003KT 16/15 A2995 RMK A01 T01550150  RH  096%=      5-min Rain = 0
KPD3 260521Z 23003KT 16/15 A2995 RMK A01 T01550149  RH  096%=      5-min Rain = 0
KPD3 260522Z 23003KT 16/15 A2995 RMK A01 T01550149  RH  096%=      5-min Rain = 0
KPD3 260523Z 23004KT 15/15 A2996 RMK A01 T01540148  RH  096%=      5-min Rain = 0
KPD3 260524Z 23004KT 15/15 A2996 RMK A01 T01540148  RH  096%=      5-min Rain = 0
KPD3 260525Z 23004KT 16/15 A2996 RMK A01 T01550149  RH  096%=      5-min Rain = 0
KPD3 260526Z 22004KT 15/15 A2996 RMK A01 T01540148  RH  096%=      5-min Rain = 0
KPD3 260527Z 21004KT 15/15 A2995 RMK A01 T01540149  RH  096%=      5-min Rain = 0
KPD3 260528Z 21004KT 16/15 A2995 RMK A01 T01550149  RH  096%=      5-min Rain = 0
KPD3 260529Z 20004KT 16/15 A2995 RMK A01 T01560150  RH  096%=      5-min Rain = 0
KPD3 260530Z 20003KT 16/15 A2995 RMK A01 T01560150  RH  096%=      5-min Rain = 0
KPD3 260531Z 20003KT 16/15 A2995 RMK A01 T01560150  RH  096%=      5-min Rain = 0
KPD3 260532Z 21004KT 16/15 A2995 RMK A01 T01560149  RH  096%=      5-min Rain = 0
KPD3 260533Z 23004KT 16/15 A2995 RMK A01 T01560149  RH  095%=      5-min Rain = 0
KPD3 260534Z 22005KT 16/15 A2996 RMK A01 T01560149  RH  096%=      5-min Rain = 0
KPD3 260535Z 24005KT 16/15 A2996 RMK A01 T01560149  RH  096%=      5-min Rain = 0
KPD3 260536Z 24005KT 16/15 A2996 RMK A01 T01560149  RH  096%=      5-min Rain = 0
KPD3 260537Z 25005KT 16/15 A2996 RMK A01 T01560149  RH  096%=      5-min Rain = 0
KPD3 260538Z 25006KT 16/15 A2996 RMK A01 T01560149  RH  096%=      5-min Rain = 0
KPD3 260539Z 25005KT 16/15 A2996 RMK A01 T01560150  RH  096%=      5-min Rain = 0
KPD3 260540Z 24005KT 16/15 A2996 RMK A01 T01570151  RH  096%=      5-min Rain = 0
KPD3 260541Z 25005KT 16/15 A2996 RMK A01 T01590153  RH  096%=      5-min Rain = 0
KPD3 260542Z 25004KT 16/15 A2996 RMK A01 T01600153  RH  096%=      5-min Rain = 0
KPD3 260543Z 26004KT 16/15 A2996 RMK A01 T01600153  RH  096%=      5-min Rain = 0
KPD3 260544Z 26005KT 16/15 A2996 RMK A01 T01600152  RH  095%=      5-min Rain = 0
KPD3 260545Z 26004KT 16/15 A2996 RMK A01 T01600152  RH  095%=      5-min Rain = 0
KPD3 260546Z 26004KT 16/15 A2996 RMK A01 T01610153  RH  095%=      5-min Rain = 0
KPD3 260547Z 26004KT 16/15 A2996 RMK A01 T01610153  RH  095%=      5-min Rain = 0
KPD3 260548Z 26004KT 16/15 A2996 RMK A01 T01610153  RH  095%=      5-min Rain = 0
KPD3 260549Z 25004KT 16/15 A2996 RMK A01 T01620154  RH  095%=      5-min Rain = 0
KPD3 260550Z 25003KT 16/15 A2996 RMK A01 T01630154  RH  095%=      5-min Rain = 0
KPD3 260551Z 24003KT 16/16 A2996 RMK A01 T01640155  RH  094%=      5-min Rain = 0
KPD3 260552Z 24003KT 17/16 A2996 RMK A01 T01650156  RH  094%=      5-min Rain = 0
KPD3 260553Z 24003KT 17/16 A2996 RMK A01 T01660155  RH  093%=      5-min Rain = 0
KPD3 260554Z 22003KT 17/15 A2997 RMK A01 T01660154  RH  093%=      5-min Rain = 0
KPD3 260555Z 22002KT 17/16 A2997 RMK A01 T01660155  RH  093%=      5-min Rain = 0
KPD3 260556Z 20003KT 17/15 A2997 RMK A01 T01660154  RH  092%=      5-min Rain = 0
KPD3 260557Z 20003KT 17/15 A2997 RMK A01 T01660154  RH  092%=      5-min Rain = 0
KPD3 260558Z 20003KT 17/15 A2997 RMK A01 T01670154  RH  092%=      5-min Rain = 0
KPD3 260559Z 20003KT 17/15 A2997 RMK A01 T01670154  RH  092%=      5-min Rain = 0
KPD3 260600Z 20003KT 17/15 A2997 RMK A01 T01670154  RH  092%=      5-min Rain = 0
KPD3 260601Z 21002KT 17/15 A2997 RMK A01 T01670153  RH  092%=      5-min Rain = 0
KPD3 260602Z 21002KT 17/15 A2997 RMK A01 T01660153  RH  092%=      5-min Rain = 0
KPD3 260603Z 20002KT 17/15 A2997 RMK A01 T01660154  RH  092%=      5-min Rain = 0
KPD3 260604Z 21002KT 17/15 A2997 RMK A01 T01670154  RH  093%=      5-min Rain = 0
KPD3 260605Z 22002KT 17/15 A2997 RMK A01 T01670154  RH  092%=      5-min Rain = 0
KPD3 260606Z 22002KT 17/15 A2997 RMK A01 T01670154  RH  092%=      5-min Rain = 0
KPD3 260607Z 23002KT 17/15 A2997 RMK A01 T01670154  RH  092%=      5-min Rain = 0
KPD3 260608Z 24002KT 17/15 A2997 RMK A01 T01670154  RH  092%=      5-min Rain = 0
KPD3 260609Z 24002KT 17/15 A2997 RMK A01 T01670154  RH  092%=      5-min Rain = 0
KPD3 260610Z 25002KT 17/15 A2997 RMK A01 T01660153  RH  092%=      5-min Rain = 0
KPD3 260611Z 24002KT 17/15 A2997 RMK A01 T01660153  RH  092%=      5-min Rain = 0
KPD3 260612Z 24002KT 17/15 A2997 RMK A01 T01650153  RH  093%=      5-min Rain = 0
KPD3 260613Z 23001KT 17/15 A2997 RMK A01 T01650153  RH  093%=      5-min Rain = 0
KPD3 260614Z 22000KT 16/15 A2997 RMK A01 T01640153  RH  093%=      5-min Rain = 0
KPD3 260615Z 00000KT 16/15 A2997 RMK A01 T01640153  RH  093%=      5-min Rain = 0
KPD3 260616Z 26000KT 16/15 A2997 RMK A01 T01640153  RH  093%=      5-min Rain = 0
KPD3 260617Z 27001KT 16/15 A2997 RMK A01 T01630151  RH  092%=      5-min Rain = 0
KPD3 260618Z 28000KT 16/15 A2997 RMK A01 T01610149  RH  092%=      5-min Rain = 0
KPD3 260619Z 31000KT 16/15 A2997 RMK A01 T01610149  RH  093%=      5-min Rain = 0
KPD3 260620Z 32001KT 16/15 A2997 RMK A01 T01600150  RH  094%=      5-min Rain = 0
KPD3 260621Z 31001KT 16/15 A2997 RMK A01 T01590149  RH  094%=      5-min Rain = 0
KPD3 260622Z 33002KT 16/15 A2997 RMK A01 T01580148  RH  094%=      5-min Rain = 0
KPD3 260623Z 34002KT 16/15 A2997 RMK A01 T01570148  RH  094%=      5-min Rain = 0
KPD3 260624Z 35002KT 16/15 A2997 RMK A01 T01570148  RH  095%=      5-min Rain = 0
KPD3 260625Z 36002KT 16/15 A2997 RMK A01 T01570149  RH  095%=      5-min Rain = 0
KPD3 260626Z 00002KT 16/15 A2997 RMK A01 T01570149  RH  095%=      5-min Rain = 0
KPD3 260627Z 36002KT 16/15 A2997 RMK A01 T01560149  RH  096%=      5-min Rain = 0
KPD3 260628Z 35002KT 16/15 A2997 RMK A01 T01560149  RH  096%=      5-min Rain = 0
KPD3 260629Z 35003KT 16/15 A2997 RMK A01 T01560150  RH  096%=      5-min Rain = 0
KPD3 260630Z 35003KT 16/15 A2997 RMK A01 T01560150  RH  096%=      5-min Rain = 0
KPD3 260631Z 35003KT 16/15 A2997 RMK A01 T01560150  RH  096%=      5-min Rain = 0
KPD3 260632Z 35002KT 16/15 A2997 RMK A01 T01550149  RH  096%=      5-min Rain = 0
KPD3 260633Z 35003KT 16/15 A2997 RMK A01 T01550149  RH  096%=      5-min Rain = 0
KPD3 260634Z 35003KT 16/15 A2997 RMK A01 T01550150  RH  096%=      5-min Rain = 0
KPD3 260635Z 35002KT 16/15 A2997 RMK A01 T01560150  RH  096%=      5-min Rain = 0
KPD3 260636Z 36002KT 16/15 A2997 RMK A01 T01560150  RH  096%=      5-min Rain = 0
KPD3 260637Z 01002KT 16/15 A2997 RMK A01 T01560151  RH  097%=      5-min Rain = 0
KPD3 260638Z 01002KT 16/15 A2997 RMK A01 T01570151  RH  097%=      5-min Rain = 0
KPD3 260639Z 02002KT 16/15 A2997 RMK A01 T01570152  RH  097%=      5-min Rain = 0
KPD3 260640Z 02001KT 16/15 A2997 RMK A01 T01580152  RH  097%=      5-min Rain = 0
KPD3 260641Z 03001KT 16/15 A2997 RMK A01 T01580152  RH  096%=      5-min Rain = 0
KPD3 260642Z 03001KT 16/15 A2997 RMK A01 T01580153  RH  096%=      5-min Rain = 0
KPD3 260643Z 02001KT 16/15 A2997 RMK A01 T01580153  RH  096%=      5-min Rain = 0
KPD3 260644Z 00000KT 16/15 A2997 RMK A01 T01590153  RH  096%=      5-min Rain = 0
KPD3 260645Z 35000KT 16/15 A2997 RMK A01 T01600154  RH  096%=      5-min Rain = 0
KPD3 260646Z 00000KT 16/15 A2997 RMK A01 T01590153  RH  096%=      5-min Rain = 0
KPD3 260647Z 35000KT 16/15 A2997 RMK A01 T01600153  RH  096%=      5-min Rain = 0
KPD3 260648Z 34001KT 16/15 A2997 RMK A01 T01590153  RH  096%=      5-min Rain = 0
KPD3 260649Z 33001KT 16/15 A2997 RMK A01 T01600153  RH  096%=      5-min Rain = 0
KPD3 260650Z 34001KT 16/15 A2997 RMK A01 T01590152  RH  096%=      5-min Rain = 0
KPD3 260651Z 34000KT 16/15 A2997 RMK A01 T01580152  RH  096%=      5-min Rain = 0
KPD3 260652Z 00000KT 16/15 A2997 RMK A01 T01590152  RH  096%=      5-min Rain = 0
KPD3 260653Z 04000KT 16/15 A2997 RMK A01 T01580152  RH  096%=      5-min Rain = 0
KPD3 260654Z 04001KT 16/15 A2997 RMK A01 T01590152  RH  096%=      5-min Rain = 0
KPD3 260655Z 04000KT 16/15 A2997 RMK A01 T01590153  RH  096%=      5-min Rain = 0
KPD3 260656Z 00000KT 16/15 A2997 RMK A01 T01590152  RH  096%=      5-min Rain = 0
KPD3 260657Z 00000KT 16/15 A2997 RMK A01 T01590152  RH  096%=      5-min Rain = 0
KPD3 260658Z 00000KT 16/15 A2997 RMK A01 T01590152  RH  096%=      5-min Rain = 0
KPD3 260659Z 01000KT 16/15 A2997 RMK A01 T01590152  RH  095%=      5-min Rain = 0
KPD3 260700Z 35001KT 16/15 A2997 RMK A01 T01580150  RH  095%=      5-min Rain = 0
KPD3 260701Z 36001KT 16/15 A2997 RMK A01 T01570149  RH  095%=      5-min Rain = 0
KPD3 260702Z 36001KT 16/15 A2997 RMK A01 T01560148  RH  095%=      5-min Rain = 0
KPD3 260703Z 01002KT 16/15 A2997 RMK A01 T01550147  RH  095%=      5-min Rain = 0
KPD3 260704Z 36002KT 16/15 A2997 RMK A01 T01550148  RH  096%=      5-min Rain = 0
KPD3 260705Z 34002KT 16/15 A2997 RMK A01 T01550148  RH  096%=      5-min Rain = 0
KPD3 260706Z 35003KT 16/15 A2997 RMK A01 T01550149  RH  096%=      5-min Rain = 0
KPD3 260707Z 35003KT 16/15 A2997 RMK A01 T01550149  RH  096%=      5-min Rain = 0
KPD3 260708Z 35003KT 16/15 A2997 RMK A01 T01550149  RH  097%=      5-min Rain = 0
KPD3 260709Z 36003KT 16/15 A2997 RMK A01 T01550150  RH  097%=      5-min Rain = 0
KPD3 260710Z 00003KT 16/15 A2997 RMK A01 T01560151  RH  097%=      5-min Rain = 0
KPD3 260711Z 01003KT 16/15 A2997 RMK A01 T01560152  RH  097%=      5-min Rain = 0
KPD3 260712Z 01003KT 16/15 A2997 RMK A01 T01570152  RH  097%=      5-min Rain = 0
KPD3 260713Z 02003KT 16/15 A2997 RMK A01 T01580153  RH  097%=      5-min Rain = 0
KPD3 260714Z 03003KT 16/15 A2997 RMK A01 T01590154  RH  097%=      5-min Rain = 0
KPD3 260715Z 04003KT 16/16 A2997 RMK A01 T01590155  RH  097%=      5-min Rain = 0
KPD3 260716Z 05003KT 16/16 A2997 RMK A01 T01610157  RH  098%=      5-min Rain = 0
KPD3 260717Z 05003KT 16/16 A2997 RMK A01 T01620159  RH  098%=      5-min Rain = 0
KPD3 260718Z 06003KT 16/16 A2997 RMK A01 T01640161  RH  098%=      5-min Rain = 0
KPD3 260719Z 06003KT 17/16 A2997 RMK A01 T01650162  RH  098%=      5-min Rain = 0
KPD3 260720Z 06002KT 17/16 A2997 RMK A01 T01660163  RH  098%=      5-min Rain = 0
KPD3 260721Z 06003KT 17/16 A2997 RMK A01 T01670163  RH  098%=      5-min Rain = 0
KPD3 260722Z 07002KT 17/16 A2997 RMK A01 T01670163  RH  098%=      5-min Rain = 0
KPD3 260723Z 07002KT 17/16 A2997 RMK A01 T01680164  RH  098%=      5-min Rain = 0
KPD3 260724Z 07002KT 17/16 A2997 RMK A01 T01680164  RH  097%=      5-min Rain = 0
KPD3 260725Z 08002KT 17/17 A2997 RMK A01 T01690165  RH  097%=      5-min Rain = 0
KPD3 260726Z 08002KT 17/17 A2997 RMK A01 T01700165  RH  097%=      5-min Rain = 0
KPD3 260727Z 08002KT 17/17 A2997 RMK A01 T01700166  RH  097%=      5-min Rain = 0
KPD3 260728Z 08002KT 17/17 A2997 RMK A01 T01710167  RH  097%=      5-min Rain = 0
KPD3 260729Z 08002KT 17/17 A2997 RMK A01 T01720167  RH  097%=      5-min Rain = 0
KPD3 260730Z 08002KT 17/17 A2997 RMK A01 T01720168  RH  097%=      5-min Rain = 0
KPD3 260731Z 08002KT 17/17 A2997 RMK A01 T01720167  RH  097%=      5-min Rain = 0
KPD3 260732Z 08002KT 17/17 A2997 RMK A01 T01730168  RH  097%=      5-min Rain = 0
KPD3 260733Z 07002KT 17/17 A2997 RMK A01 T01730168  RH  097%=      5-min Rain = 0
KPD3 260734Z 06002KT 17/17 A2997 RMK A01 T01740169  RH  097%=      5-min Rain = 0
KPD3 260735Z 06002KT 18/17 A2997 RMK A01 T01750170  RH  097%=      5-min Rain = 0
KPD3 260736Z 07003KT 18/17 A2997 RMK A01 T01750170  RH  097%=      5-min Rain = 0
KPD3 260737Z 06003KT 18/17 A2997 RMK A01 T01760170  RH  097%=      5-min Rain = 0
KPD3 260738Z 07003KT 18/17 A2997 RMK A01 T01760171  RH  096%=      5-min Rain = 0
KPD3 260739Z 06003KT 18/17 A2997 RMK A01 T01770171  RH  096%=      5-min Rain = 0
KPD3 260740Z 06003KT 18/17 A2997 RMK A01 T01770171  RH  096%=      5-min Rain = 0
KPD3 260741Z 07003KT 18/17 A2997 RMK A01 T01770171  RH  096%=      5-min Rain = 0
KPD3 260742Z 06003KT 18/17 A2997 RMK A01 T01780171  RH  096%=      5-min Rain = 0
KPD3 260743Z 06003KT 18/17 A2997 RMK A01 T01770171  RH  096%=      5-min Rain = 0
KPD3 260744Z 07003KT 18/17 A2997 RMK A01 T01780172  RH  096%=      5-min Rain = 0
KPD3 260745Z 07003KT 18/17 A2997 RMK A01 T01780172  RH  096%=      5-min Rain = 0
KPD3 260746Z 07003KT 18/17 A2997 RMK A01 T01780172  RH  096%=      5-min Rain = 0
KPD3 260747Z 07002KT 18/17 A2997 RMK A01 T01780172  RH  096%=      5-min Rain = 0
KPD3 260748Z 06002KT 18/17 A2997 RMK A01 T01790173  RH  096%=      5-min Rain = 0
KPD3 260749Z 06002KT 18/17 A2997 RMK A01 T01790173  RH  096%=      5-min Rain = 0
KPD3 260750Z 07002KT 18/17 A2997 RMK A01 T01790173  RH  096%=      5-min Rain = 0
KPD3 260751Z 06002KT 18/17 A2997 RMK A01 T01790174  RH  096%=      5-min Rain = 0
KPD3 260752Z 06002KT 18/17 A2997 RMK A01 T01790174  RH  096%=      5-min Rain = 0
KPD3 260753Z 06002KT 18/17 A2997 RMK A01 T01790174  RH  097%=      5-min Rain = 0
KPD3 260754Z 06002KT 18/17 A2997 RMK A01 T01800174  RH  097%=      5-min Rain = 0
KPD3 260755Z 06002KT 18/17 A2997 RMK A01 T01800174  RH  097%=      5-min Rain = 0
KPD3 260756Z 06002KT 18/18 A2997 RMK A01 T01800175  RH  097%=      5-min Rain = 0
KPD3 260757Z 06001KT 18/18 A2997 RMK A01 T01800175  RH  097%=      5-min Rain = 0
KPD3 260758Z 06001KT 18/18 A2997 RMK A01 T01800175  RH  097%=      5-min Rain = 0
KPD3 260759Z 06002KT 18/18 A2997 RMK A01 T01800175  RH  097%=      5-min Rain = 0
KPD3 260800Z 06001KT 18/18 A2997 RMK A01 T01810176  RH  097%=      5-min Rain = 0
KPD3 260801Z 05001KT 18/18 A2997 RMK A01 T01810176  RH  097%=      5-min Rain = 0
KPD3 260802Z 06001KT 18/18 A2997 RMK A01 T01810176  RH  097%=      5-min Rain = 0
KPD3 260803Z 06001KT 18/18 A2997 RMK A01 T01820177  RH  097%=      5-min Rain = 0
KPD3 260804Z 06001KT 18/18 A2997 RMK A01 T01820177  RH  097%=      5-min Rain = 0
KPD3 260805Z 05001KT 18/18 A2997 RMK A01 T01820177  RH  097%=      5-min Rain = 0
KPD3 260806Z 05002KT 18/18 A2997 RMK A01 T01820177  RH  097%=      5-min Rain = 0
KPD3 260807Z 06002KT 18/18 A2997 RMK A01 T01820177  RH  097%=      5-min Rain = 0
KPD3 260808Z 07002KT 18/18 A2997 RMK A01 T01820178  RH  097%=      5-min Rain = 0
KPD3 260809Z 07002KT 18/18 A2997 RMK A01 T01830178  RH  097%=      5-min Rain = 0
KPD3 260810Z 07002KT 18/18 A2997 RMK A01 T01830178  RH  097%=      5-min Rain = 0
KPD3 260811Z 06003KT 18/18 A2997 RMK A01 T01830178  RH  097%=      5-min Rain = 0
KPD3 260812Z 07003KT 18/18 A2997 RMK A01 T01830178  RH  097%=      5-min Rain = 0
KPD3 260813Z 07003KT 18/18 A2997 RMK A01 T01830179  RH  097%=      5-min Rain = 0
KPD3 260814Z 07003KT 18/18 A2997 RMK A01 T01830179  RH  097%=      5-min Rain = 0
KPD3 260815Z 07003KT 18/18 A2997 RMK A01 T01830179  RH  097%=      5-min Rain = 0
KPD3 260816Z 08003KT 18/18 A2997 RMK A01 T01830179  RH  097%=      5-min Rain = 0
KPD3 260817Z 08003KT 18/18 A2997 RMK A01 T01840179  RH  097%=      5-min Rain = 0
KPD3 260818Z 08003KT 18/18 A2997 RMK A01 T01830179  RH  097%=      5-min Rain = 0
KPD3 260819Z 08003KT 18/18 A2997 RMK A01 T01840179  RH  097%=      5-min Rain = 0
KPD3 260820Z 08003KT 18/18 A2997 RMK A01 T01840180  RH  097%=      5-min Rain = 0
KPD3 260821Z 09003KT 18/18 A2997 RMK A01 T01840180  RH  097%=      5-min Rain = 0
KPD3 260822Z 09003KT 18/18 A2997 RMK A01 T01840180  RH  097%=      5-min Rain = 0
KPD3 260823Z 09002KT 18/18 A2997 RMK A01 T01840180  RH  097%=      5-min Rain = 0
KPD3 260824Z 09003KT 18/18 A2997 RMK A01 T01840180  RH  097%=      5-min Rain = 0
KPD3 260825Z 09003KT 18/18 A2997 RMK A01 T01840180  RH  097%=      5-min Rain = 0
KPD3 260826Z 09003KT 19/18 A2997 RMK A01 T01850181  RH  097%=      5-min Rain = 0
KPD3 260827Z 10003KT 18/18 A2997 RMK A01 T01840180  RH  097%=      5-min Rain = 0
KPD3 260828Z 09002KT 19/18 A2997 RMK A01 T01850181  RH  098%=      5-min Rain = 0
KPD3 260829Z 10002KT 19/18 A2997 RMK A01 T01850181  RH  098%=      5-min Rain = 0
KPD3 260830Z 10003KT 19/18 A2997 RMK A01 T01850181  RH  098%=      5-min Rain = 0
KPD3 260831Z 10003KT 19/18 A2997 RMK A01 T01850181  RH  098%=      5-min Rain = 0
KPD3 260832Z 11003KT 19/18 A2997 RMK A01 T01850181  RH  098%=      5-min Rain = 0
KPD3 260833Z 11003KT 19/18 A2997 RMK A01 T01850182  RH  098%=      5-min Rain = 0
KPD3 260834Z 11003KT 19/18 A2997 RMK A01 T01850182  RH  098%=      5-min Rain = 0
KPD3 260835Z 11003KT 19/18 A2997 RMK A01 T01860182  RH  098%=      5-min Rain = 0
KPD3 260836Z 11003KT 19/18 A2997 RMK A01 T01860182  RH  098%=      5-min Rain = 0
KPD3 260837Z 11003KT 19/18 A2997 RMK A01 T01860182  RH  098%=      5-min Rain = 0
KPD3 260838Z 11002KT 19/18 A2997 RMK A01 T01860182  RH  098%=      5-min Rain = 0
KPD3 260839Z 11002KT 19/18 A2997 RMK A01 T01860182  RH  098%=      5-min Rain = 0
KPD3 260840Z 10002KT 19/18 A2997 RMK A01 T01860183  RH  098%=      5-min Rain = 0
KPD3 260841Z 10002KT 19/18 A2997 RMK A01 T01860183  RH  098%=      5-min Rain = 0
KPD3 260842Z 10003KT 19/18 A2997 RMK A01 T01860183  RH  098%=      5-min Rain = 0
KPD3 260843Z 10003KT 19/18 A2997 RMK A01 T01860183  RH  098%=      5-min Rain = 0
KPD3 260844Z 11002KT 19/18 A2997 RMK A01 T01860183  RH  098%=      5-min Rain = 0
KPD3 260845Z 11002KT 19/18 A2997 RMK A01 T01860183  RH  098%=      5-min Rain = 0
KPD3 260846Z 11002KT 19/18 A2997 RMK A01 T01860183  RH  098%=      5-min Rain = 0
KPD3 260847Z 11003KT 19/18 A2997 RMK A01 T01860183  RH  098%=      5-min Rain = 0
KPD3 260848Z 10002KT 19/18 A2997 RMK A01 T01860183  RH  098%=      5-min Rain = 0
KPD3 260849Z 11002KT 19/18 A2997 RMK A01 T01860183  RH  098%=      5-min Rain = 0
KPD3 260850Z 11002KT 19/18 A2997 RMK A01 T01860183  RH  098%=      5-min Rain = 0
KPD3 260851Z 11002KT 19/18 A2997 RMK A01 T01860183  RH  098%=      5-min Rain = 0
KPD3 260852Z 11002KT 19/18 A2997 RMK A01 T01860183  RH  098%=      5-min Rain = 0
KPD3 260853Z 11002KT 19/18 A2997 RMK A01 T01870184  RH  098%=      5-min Rain = 0
KPD3 260854Z 11003KT 19/18 A2997 RMK A01 T01860183  RH  098%=      5-min Rain = 0
KPD3 260855Z 10002KT 19/18 A2997 RMK A01 T01870184  RH  098%=      5-min Rain = 0
KPD3 260856Z 11003KT 19/18 A2997 RMK A01 T01870184  RH  098%=      5-min Rain = 0
KPD3 260857Z 10003KT 19/18 A2997 RMK A01 T01870184  RH  098%=      5-min Rain = 0
KPD3 260858Z 11003KT 19/18 A2997 RMK A01 T01870184  RH  098%=      5-min Rain = 0
KPD3 260859Z 11004KT 19/19 A2997 RMK A01 T01880185  RH  098%=      5-min Rain = 0
KPD3 260900Z 12003KT 19/19 A2997 RMK A01 T01880185  RH  098%=      5-min Rain = 0
KPD3 260901Z 12003KT 19/19 A2998 RMK A01 T01880186  RH  098%=      5-min Rain = 0
KPD3 260902Z 13003KT 19/19 A2998 RMK A01 T01890186  RH  098%=      5-min Rain = 0
KPD3 260903Z 12004KT 19/19 A2998 RMK A01 T01890186  RH  098%=      5-min Rain = 0
KPD3 260904Z 12003KT 19/19 A2997 RMK A01 T01890187  RH  098%=      5-min Rain = 0
KPD3 260905Z 12004KT 19/19 A2997 RMK A01 T01890187  RH  099%=      5-min Rain = 0
KPD3 260906Z 12004KT 19/19 A2997 RMK A01 T01900187  RH  098%=      5-min Rain = 0
KPD3 260907Z 12003KT 19/19 A2997 RMK A01 T01900187  RH  099%=      5-min Rain = 0
KPD3 260908Z 11004KT 19/19 A2997 RMK A01 T01900188  RH  099%=      5-min Rain = 0
KPD3 260909Z 12005KT 19/19 A2997 RMK A01 T01900188  RH  099%=      5-min Rain = 0
KPD3 260910Z 12004KT 19/19 A2997 RMK A01 T01900188  RH  099%=      5-min Rain = 0
KPD3 260911Z 12004KT 19/19 A2997 RMK A01 T01900188  RH  099%=      5-min Rain = 0
KPD3 260912Z 12004KT 19/19 A2998 RMK A01 T01910188  RH  099%=      5-min Rain = 0
KPD3 260913Z 12004KT 19/19 A2997 RMK A01 T01910189  RH  099%=      5-min Rain = 0
KPD3 260914Z 12004KT 19/19 A2997 RMK A01 T01910189  RH  099%=      5-min Rain = 0
KPD3 260915Z 12004KT 19/19 A2997 RMK A01 T01910189  RH  099%=      5-min Rain = 0
KPD3 260916Z 11004KT 19/19 A2997 RMK A01 T01910189  RH  099%=      5-min Rain = 0
KPD3 260917Z 12003KT 19/19 A2997 RMK A01 T01910189  RH  099%=      5-min Rain = 0
KPD3 260918Z 12003KT 19/19 A2997 RMK A01 T01910189  RH  099%=      5-min Rain = 0
KPD3 260919Z 13003KT 19/19 A2997 RMK A01 T01910189  RH  099%=      5-min Rain = 0
KPD3 260920Z 13003KT 19/19 A2997 RMK A01 T01910189  RH  099%=      5-min Rain = 0
KPD3 260921Z 11004KT 19/19 A2997 RMK A01 T01910189  RH  099%=      5-min Rain = 0
KPD3 260922Z 11003KT 19/19 A2997 RMK A01 T01910189  RH  099%=      5-min Rain = 0
KPD3 260923Z 12004KT 19/19 A2997 RMK A01 T01920190  RH  099%=      5-min Rain = 0
KPD3 260924Z 12004KT 19/19 A2997 RMK A01 T01920190  RH  099%=      5-min Rain = 0
KPD3 260925Z 12004KT 19/19 A2997 RMK A01 T01920190  RH  099%=      5-min Rain = 0
KPD3 260926Z 12004KT 19/19 A2997 RMK A01 T01920190  RH  099%=      5-min Rain = 0
KPD3 260927Z 12004KT 19/19 A2997 RMK A01 T01920190  RH  099%=      5-min Rain = 0
KPD3 260928Z 11004KT 19/19 A2997 RMK A01 T01920190  RH  099%=      5-min Rain = 0
KPD3 260929Z 12004KT 19/19 A2997 RMK A01 T01920190  RH  099%=      5-min Rain = 0
KPD3 260930Z 12004KT 19/19 A2997 RMK A01 T01930191  RH  099%=      5-min Rain = 0
KPD3 260931Z 12004KT 19/19 A2997 RMK A01 T01930191  RH  099%=      5-min Rain = 0
KPD3 260932Z 12004KT 19/19 A2997 RMK A01 T01930191  RH  099%=      5-min Rain = 0
KPD3 260933Z 12004KT 19/19 A2997 RMK A01 T01930191  RH  099%=      5-min Rain = 0
KPD3 260934Z 12004KT 19/19 A2997 RMK A01 T01930191  RH  099%=      5-min Rain = 0
KPD3 260935Z 12005KT 19/19 A2997 RMK A01 T01930191  RH  099%=      5-min Rain = 0
KPD3 260936Z 12005KT 19/19 A2997 RMK A01 T01930192  RH  099%=      5-min Rain = 0
KPD3 260937Z 12005KT 19/19 A2997 RMK A01 T01940192  RH  099%=      5-min Rain = 0
KPD3 260938Z 12005KT 19/19 A2997 RMK A01 T01940192  RH  099%=      5-min Rain = 0
KPD3 260939Z 13005KT 19/19 A2997 RMK A01 T01940192  RH  099%=      5-min Rain = 0
KPD3 260940Z 13004KT 19/19 A2997 RMK A01 T01940192  RH  099%=      5-min Rain = 0
KPD3 260941Z 13004KT 19/19 A2997 RMK A01 T01940192  RH  099%=      5-min Rain = 0
KPD3 260942Z 13005KT 19/19 A2997 RMK A01 T01940192  RH  099%=      5-min Rain = 0
KPD3 260943Z 13005KT 19/19 A2997 RMK A01 T01940192  RH  099%=      5-min Rain = 0
KPD3 260944Z 13005KT 19/19 A2997 RMK A01 T01940193  RH  099%=      5-min Rain = 0
KPD3 260945Z 13005KT 20/19 A2997 RMK A01 T01950193  RH  099%=      5-min Rain = 0
KPD3 260946Z 13005KT 19/19 A2997 RMK A01 T01940193  RH  099%=      5-min Rain = 0
KPD3 260947Z 13005KT 19/19 A2997 RMK A01 T01940193  RH  099%=      5-min Rain = 0
KPD3 260948Z 13005KT 19/19 A2997 RMK A01 T01940193  RH  099%=      5-min Rain = 0
KPD3 260949Z 13006KT 20/19 A2997 RMK A01 T01950193  RH  099%=      5-min Rain = 0
KPD3 260950Z 13005KT 19/19 A2997 RMK A01 T01940193  RH  099%=      5-min Rain = 0
KPD3 260951Z 13006KT 20/19 A2997 RMK A01 T01950193  RH  099%=      5-min Rain = 0
KPD3 260952Z 13006KT 19/19 A2997 RMK A01 T01940193  RH  099%=      5-min Rain = 0
KPD3 260953Z 13005KT 20/19 A2997 RMK A01 T01950193  RH  099%=      5-min Rain = 0
KPD3 260954Z 13005KT 20/19 A2997 RMK A01 T01950194  RH  099%=      5-min Rain = 0
KPD3 260955Z 13006KT 20/19 A2997 RMK A01 T01950193  RH  099%=      5-min Rain = 0
KPD3 260956Z 14006KT 20/19 A2997 RMK A01 T01950193  RH  099%=      5-min Rain = 0
KPD3 260957Z 14005KT 20/19 A2997 RMK A01 T01950193  RH  099%=      5-min Rain = 0
KPD3 260958Z 14005KT 20/19 A2997 RMK A01 T01950193  RH  099%=      5-min Rain = 0
KPD3 260959Z 14006KT 20/19 A2997 RMK A01 T01950193  RH  099%=      5-min Rain = 0
KPD3 261000Z 14006KT 20/19 A2997 RMK A01 T01950193  RH  099%=      5-min Rain = 0
KPD3 261001Z 14006KT 20/19 A2997 RMK A01 T01950193  RH  099%=      5-min Rain = 0
KPD3 261002Z 14006KT 20/19 A2997 RMK A01 T01950194  RH  099%=      5-min Rain = 0
KPD3 261003Z 14005KT 20/19 A2997 RMK A01 T01950194  RH  099%=      5-min Rain = 0
KPD3 261004Z 14006KT 20/19 A2997 RMK A01 T01950194  RH  099%=      5-min Rain = 0
KPD3 261005Z 14006KT 20/19 A2997 RMK A01 T01950194  RH  099%=      5-min Rain = 0
KPD3 261006Z 15007KT 20/19 A2997 RMK A01 T01950194  RH  099%=      5-min Rain = 0
KPD3 261007Z 14006KT 20/19 A2997 RMK A01 T01950194  RH  099%=      5-min Rain = 0
KPD3 261008Z 14006KT 20/19 A2997 RMK A01 T01950194  RH  099%=      5-min Rain = 0
KPD3 261009Z 14005KT 20/19 A2997 RMK A01 T01960194  RH  099%=      5-min Rain = 0
KPD3 261010Z 14005KT 20/19 A2997 RMK A01 T01960194  RH  099%=      5-min Rain = 0
KPD3 261011Z 13006KT 20/19 A2997 RMK A01 T01960194  RH  099%=      5-min Rain = 0
KPD3 261012Z 13005KT 20/19 A2997 RMK A01 T01960194  RH  099%=      5-min Rain = 0
KPD3 261013Z 14005KT 20/19 A2997 RMK A01 T01960194  RH  099%=      5-min Rain = 0
KPD3 261014Z 13005KT 20/19 A2997 RMK A01 T01960194  RH  099%=      5-min Rain = 0
KPD3 261015Z 13005KT 20/19 A2997 RMK A01 T01960194  RH  099%=      5-min Rain = 0
KPD3 261016Z 13005KT 20/19 A2997 RMK A01 T01960194  RH  099%=      5-min Rain = 0
KPD3 261017Z 13006KT 20/19 A2997 RMK A01 T01960194  RH  099%=      5-min Rain = 0
KPD3 261018Z 14006KT 20/19 A2997 RMK A01 T01960194  RH  099%=      5-min Rain = 0
KPD3 261019Z 13006KT 20/19 A2997 RMK A01 T01960194  RH  099%=      5-min Rain = 0
KPD3 261020Z 14006KT 20/19 A2998 RMK A01 T01960194  RH  099%=      5-min Rain = 0
KPD3 261021Z 13005KT 20/19 A2998 RMK A01 T01960194  RH  099%=      5-min Rain = 0
KPD3 261022Z 13006KT 20/19 A2998 RMK A01 T01960194  RH  099%=      5-min Rain = 0
KPD3 261023Z 14006KT 20/19 A2998 RMK A01 T01960194  RH  099%=      5-min Rain = 0
KPD3 261024Z 14006KT 20/19 A2997 RMK A01 T01960194  RH  099%=      5-min Rain = 0
KPD3 261025Z 14007KT 20/19 A2997 RMK A01 T01960194  RH  099%=      5-min Rain = 0
KPD3 261026Z 14006KT 20/19 A2997 RMK A01 T01960194  RH  099%=      5-min Rain = 0
KPD3 261027Z 14006KT 20/19 A2997 RMK A01 T01960194  RH  099%=      5-min Rain = 0
KPD3 261028Z 13006KT 20/19 A2997 RMK A01 T01960194  RH  099%=      5-min Rain = 0
KPD3 261029Z 14006KT 20/19 A2997 RMK A01 T01960194  RH  099%=      5-min Rain = 0
KPD3 261030Z 14006KT 20/19 A2997 RMK A01 T01960194  RH  099%=      5-min Rain = 0
KPD3 261031Z 14006KT 20/19 A2997 RMK A01 T01960194  RH  099%=      5-min Rain = 0
KPD3 261032Z 14006KT 20/19 A2997 RMK A01 T01960194  RH  099%=      5-min Rain = 0
KPD3 261033Z 14006KT 20/19 A2997 RMK A01 T01960194  RH  099%=      5-min Rain = 0
KPD3 261034Z 13007KT 20/19 A2997 RMK A01 T01960194  RH  099%=      5-min Rain = 0
KPD3 261035Z 14006KT 20/19 A2997 RMK A01 T01960194  RH  099%=      5-min Rain = 0
KPD3 261036Z 14005KT 20/19 A2998 RMK A01 T01960193  RH  099%=      5-min Rain = 0
KPD3 261037Z 15007KT 20/19 A2998 RMK A01 T01960194  RH  099%=      5-min Rain = 0
KPD3 261038Z 15006KT 20/19 A2998 RMK A01 T01960193  RH  099%=      5-min Rain = 0
KPD3 261039Z 14006KT 20/19 A2998 RMK A01 T01960194  RH  099%=      5-min Rain = 0
KPD3 261040Z 14005KT 20/19 A2998 RMK A01 T01960193  RH  099%=      5-min Rain = 0
KPD3 261041Z 15005KT 20/19 A2998 RMK A01 T01960194  RH  099%=      5-min Rain = 0
KPD3 261042Z 15006KT 20/19 A2998 RMK A01 T01960193  RH  099%=      5-min Rain = 0
KPD3 261043Z 15006KT 20/19 A2998 RMK A01 T01960193  RH  098%=      5-min Rain = 0
KPD3 261044Z 15006KT 20/19 A2998 RMK A01 T01960193  RH  099%=      5-min Rain = 0
KPD3 261045Z 15006KT 20/19 A2998 RMK A01 T01960194  RH  099%=      5-min Rain = 0
KPD3 261046Z 15007KT 20/19 A2998 RMK A01 T01960193  RH  099%=      5-min Rain = 0
KPD3 261047Z 15006KT 20/19 A2998 RMK A01 T01960194  RH  099%=      5-min Rain = 0
KPD3 261048Z 15007KT 20/19 A2998 RMK A01 T01960194  RH  099%=      5-min Rain = 0
KPD3 261049Z 15007KT 20/19 A2998 RMK A01 T01960193  RH  098%=      5-min Rain = 0
KPD3 261050Z 15006KT 20/19 A2998 RMK A01 T01960193  RH  099%=      5-min Rain = 0
KPD3 261051Z 15006KT 20/19 A2998 RMK A01 T01960194  RH  099%=      5-min Rain = 0
KPD3 261052Z 15005KT 20/19 A2998 RMK A01 T01960193  RH  098%=      5-min Rain = 0
KPD3 261053Z 15005KT 20/19 A2998 RMK A01 T01960193  RH  098%=      5-min Rain = 0
KPD3 261054Z 15006KT 20/19 A2998 RMK A01 T01960193  RH  098%=      5-min Rain = 0
KPD3 261055Z 15006KT 20/19 A2998 RMK A01 T01960194  RH  098%=      5-min Rain = 0
KPD3 261056Z 15005KT 20/19 A2998 RMK A01 T01960194  RH  098%=      5-min Rain = 0
KPD3 261057Z 15006KT 20/19 A2998 RMK A01 T01960193  RH  098%=      5-min Rain = 0
KPD3 261058Z 15005KT 20/19 A2998 RMK A01 T01960193  RH  098%=      5-min Rain = 0
KPD3 261059Z 15006KT 20/19 A2998 RMK A01 T01960193  RH  098%=      5-min Rain = 0
KPD3 261100Z 15006KT 20/19 A2998 RMK A01 T01960193  RH  098%=      5-min Rain = 0
KPD3 261101Z 15005KT 20/19 A2998 RMK A01 T01960193  RH  098%=      5-min Rain = 0
KPD3 261102Z 15005KT 20/19 A2998 RMK A01 T01950193  RH  098%=      5-min Rain = 0
KPD3 261103Z 15006KT 20/19 A2998 RMK A01 T01950193  RH  098%=      5-min Rain = 0
KPD3 261104Z 15006KT 20/19 A2998 RMK A01 T01950193  RH  099%=      5-min Rain = 0
KPD3 261105Z 15005KT 20/19 A2998 RMK A01 T01950193  RH  099%=      5-min Rain = 0
KPD3 261106Z 15006KT 20/19 A2998 RMK A01 T01950193  RH  098%=      5-min Rain = 0
KPD3 261107Z 15006KT 20/19 A2998 RMK A01 T01950193  RH  099%=      5-min Rain = 0
KPD3 261108Z 15005KT 20/19 A2998 RMK A01 T01950193  RH  098%=      5-min Rain = 0
KPD3 261109Z 15005KT 20/19 A2998 RMK A01 T01950193  RH  099%=      5-min Rain = 0
KPD3 261110Z 15005KT 20/19 A2998 RMK A01 T01950193  RH  099%=      5-min Rain = 0
KPD3 261111Z 15006KT 20/19 A2998 RMK A01 T01960193  RH  099%=      5-min Rain = 0
KPD3 261112Z 15005KT 20/19 A2998 RMK A01 T01950193  RH  099%=      5-min Rain = 0
KPD3 261113Z 15005KT 20/19 A2998 RMK A01 T01950193  RH  099%=      5-min Rain = 0
KPD3 261114Z 15005KT 20/19 A2998 RMK A01 T01950193  RH  099%=      5-min Rain = 0
KPD3 261115Z 15004KT 20/19 A2998 RMK A01 T01950193  RH  099%=      5-min Rain = 0
KPD3 261116Z 14006KT 20/19 A2998 RMK A01 T01950193  RH  099%=      5-min Rain = 0
KPD3 261117Z 15006KT 20/19 A2998 RMK A01 T01960193  RH  099%=      5-min Rain = 0
KPD3 261118Z 14006KT 20/19 A2998 RMK A01 T01950193  RH  099%=      5-min Rain = 0
KPD3 261119Z 15005KT 20/19 A2998 RMK A01 T01950193  RH  099%=      5-min Rain = 0
KPD3 261120Z 15006KT 20/19 A2998 RMK A01 T01950193  RH  099%=      5-min Rain = 0
KPD3 261121Z 15006KT 20/19 A2998 RMK A01 T01950193  RH  099%=      5-min Rain = 0
KPD3 261122Z 15006KT 20/19 A2998 RMK A01 T01950193  RH  099%=      5-min Rain = 0
KPD3 261123Z 15006KT 20/19 A2998 RMK A01 T01950193  RH  099%=      5-min Rain = 0
KPD3 261124Z 15006KT 20/19 A2998 RMK A01 T01950193  RH  099%=      5-min Rain = 0
KPD3 261125Z 15006KT 20/19 A2998 RMK A01 T01950193  RH  099%=      5-min Rain = 0
KPD3 261126Z 16005KT 20/19 A2998 RMK A01 T01950193  RH  099%=      5-min Rain = 0
KPD3 261127Z 15006KT 20/19 A2999 RMK A01 T01950193  RH  099%=      5-min Rain = 0
KPD3 261128Z 15005KT 20/19 A2999 RMK A01 T01950193  RH  099%=      5-min Rain = 0
KPD3 261129Z 16005KT 20/19 A2999 RMK A01 T01950193  RH  099%=      5-min Rain = 0
KPD3 261130Z 16005KT 20/19 A2999 RMK A01 T01960193  RH  099%=      5-min Rain = 0
KPD3 261131Z 15006KT 20/19 A2999 RMK A01 T01960193  RH  099%=      5-min Rain = 0
KPD3 261132Z 15006KT 20/19 A2999 RMK A01 T01950193  RH  099%=      5-min Rain = 0
KPD3 261133Z 15005KT 20/19 A2999 RMK A01 T01950193  RH  099%=      5-min Rain = 0
KPD3 261134Z 15006KT 20/19 A2999 RMK A01 T01950193  RH  099%=      5-min Rain = 0
KPD3 261135Z 15005KT 20/19 A2999 RMK A01 T01950193  RH  099%=      5-min Rain = 0
KPD3 261136Z 15005KT 20/19 A2999 RMK A01 T01960194  RH  099%=      5-min Rain = 0
KPD3 261137Z 15006KT 20/19 A2999 RMK A01 T01950193  RH  099%=      5-min Rain = 0
KPD3 261138Z 15005KT 20/19 A2999 RMK A01 T01950193  RH  099%=      5-min Rain = 0
KPD3 261139Z 15006KT 20/19 A2999 RMK A01 T01950193  RH  099%=      5-min Rain = 0
KPD3 261140Z 15006KT 20/19 A2999 RMK A01 T01950193  RH  099%=      5-min Rain = 0
KPD3 261141Z 15006KT 20/19 A2999 RMK A01 T01950193  RH  099%=      5-min Rain = 0
KPD3 261142Z 15005KT 20/19 A2999 RMK A01 T01950193  RH  099%=      5-min Rain = 0
KPD3 261143Z 15006KT 20/19 A2999 RMK A01 T01950193  RH  099%=      5-min Rain = 0
KPD3 261144Z 15005KT 20/19 A2999 RMK A01 T01950193  RH  099%=      5-min Rain = 0
KPD3 261145Z 15006KT 20/19 A2999 RMK A01 T01950193  RH  099%=      5-min Rain = 0
KPD3 261146Z 15006KT 20/19 A2999 RMK A01 T01950193  RH  099%=      5-min Rain = 0
KPD3 261147Z 15006KT 20/19 A2999 RMK A01 T01950193  RH  099%=      5-min Rain = 0
KPD3 261148Z 14006KT 20/19 A2999 RMK A01 T01950193  RH  099%=      5-min Rain = 0
KPD3 261149Z 14006KT 20/19 A2999 RMK A01 T01950194  RH  099%=      5-min Rain = 0
KPD3 261150Z 14005KT 20/19 A2999 RMK A01 T01950193  RH  099%=      5-min Rain = 0
KPD3 261151Z 14005KT 20/19 A2999 RMK A01 T01950194  RH  099%=      5-min Rain = 0
KPD3 261152Z 14005KT 20/19 A2999 RMK A01 T01950194  RH  099%=      5-min Rain = 0
KPD3 261153Z 14006KT 20/19 A2999 RMK A01 T01950194  RH  099%=      5-min Rain = 0
KPD3 261154Z 14007KT 20/19 A2999 RMK A01 T01950194  RH  099%=      5-min Rain = 0
KPD3 261155Z 14006KT 20/19 A2999 RMK A01 T01950194  RH  099%=      5-min Rain = 0
KPD3 261156Z 14006KT 20/19 A2999 RMK A01 T01950194  RH  099%=      5-min Rain = 0
KPD3 261157Z 14005KT 20/19 A2999 RMK A01 T01950194  RH  099%=      5-min Rain = 0
KPD3 261158Z 14006KT 20/19 A2999 RMK A01 T01950194  RH  099%=      5-min Rain = 0
KPD3 261159Z 14006KT 20/19 A2999 RMK A01 T01960194  RH  099%=      5-min Rain = 0
KPD3 261200Z 13005KT 20/19 A2999 RMK A01 T01960194  RH  099%=      5-min Rain = 0
KPD3 261201Z 13005KT 20/19 A2999 RMK A01 T01960194  RH  099%=      5-min Rain = 0
KPD3 261202Z 14006KT 20/19 A2999 RMK A01 T01960194  RH  099%=      5-min Rain = 0
KPD3 261203Z 13007KT 20/20 A30 RMK A01 T01960195  RH  099%=      5-min Rain = 0
KPD3 261204Z 12007KT 20/19 A30 RMK A01 T01960194  RH  099%=      5-min Rain = 0
KPD3 261205Z 14006KT 20/20 A30 RMK A01 T01960195  RH  099%=      5-min Rain = 0
KPD3 261206Z 14005KT 20/20 A30 RMK A01 T01960195  RH  099%=      5-min Rain = 0
KPD3 261207Z 13005KT 20/20 A30 RMK A01 T01960195  RH  099%=      5-min Rain = 0
KPD3 261208Z 13008KT 20/20 A30 RMK A01 T01960195  RH  099%=      5-min Rain = 0
KPD3 261209Z 14008KT 20/20 A30 RMK A01 T01960195  RH  099%=      5-min Rain = 0
KPD3 261210Z 13008KT 20/20 A30 RMK A01 T01960195  RH  099%=      5-min Rain = 0
KPD3 261211Z 14008KT 20/20 A30 RMK A01 T01960195  RH  099%=      5-min Rain = 0
KPD3 261212Z 14007KT 20/20 A30 RMK A01 T01960195  RH  099%=      5-min Rain = 0
KPD3 261213Z 13007KT 20/20 A30 RMK A01 T01960195  RH  099%=      5-min Rain = 0
KPD3 261214Z 14007KT 20/20 A30 RMK A01 T01960195  RH  099%=      5-min Rain = 0
KPD3 261215Z 14007KT 20/20 A30 RMK A01 T01960195  RH  099%=      5-min Rain = 0
KPD3 261216Z 14008KT 20/20 A30 RMK A01 T01960195  RH  099%=      5-min Rain = 0
KPD3 261217Z 14008KT 20/20 A30 RMK A01 T01960195  RH  099%=      5-min Rain = 0
KPD3 261218Z 14009KT 20/20 A30 RMK A01 T01960195  RH  099%=      5-min Rain = 0
KPD3 261219Z 13009KT 20/20 A30 RMK A01 T01960195  RH  099%=      5-min Rain = 0
KPD3 261220Z 13008KT 20/20 A30 RMK A01 T01960195  RH  099%=      5-min Rain = 0
KPD3 261221Z 13009KT 20/20 A30 RMK A01 T01960195  RH  099%=      5-min Rain = 0
KPD3 261222Z 14009KT 20/20 A30 RMK A01 T01960195  RH  099%=      5-min Rain = 0
KPD3 261223Z 14008KT 20/20 A30 RMK A01 T01960195  RH  099%=      5-min Rain = 0
KPD3 261224Z 14008KT 20/20 A30 RMK A01 T01960195  RH  099%=      5-min Rain = 0
KPD3 261225Z 14009KT 20/20 A30 RMK A01 T01960195  RH  099%=      5-min Rain = 0
KPD3 261226Z 14009KT 20/20 A30 RMK A01 T01960195  RH  099%=      5-min Rain = 0
KPD3 261227Z 14010KT 20/20 A30 RMK A01 T01960195  RH  099%=      5-min Rain = 0
KPD3 261228Z 14009KT 20/20 A30 RMK A01 T01960195  RH  099%=      5-min Rain = 0
KPD3 261229Z 14009KT 20/20 A30 RMK A01 T01960195  RH  099%=      5-min Rain = 0
KPD3 261230Z 14009KT 20/20 A30 RMK A01 T01960195  RH  099%=      5-min Rain = 0
KPD3 261231Z 14010KT 20/20 A30 RMK A01 T01960195  RH  099%=      5-min Rain = 0
KPD3 261232Z 14010KT 20/20 A30 RMK A01 T01960195  RH  099%=      5-min Rain = 0
KPD3 261233Z 14010KT 20/20 A30 RMK A01 T01960195  RH  099%=      5-min Rain = 0
KPD3 261234Z 14009KT 20/20 A3001 RMK A01 T01960195  RH  099%=      5-min Rain = 0
KPD3 261235Z 14009KT 20/20 A3001 RMK A01 T01960195  RH  099%=      5-min Rain = 0
KPD3 261236Z 14010KT 20/20 A3001 RMK A01 T01960195  RH  099%=      5-min Rain = 0
KPD3 261237Z 13010KT 20/20 A3001 RMK A01 T01960195  RH  099%=      5-min Rain = 0
KPD3 261238Z 14009KT 20/20 A3001 RMK A01 T01960195  RH  099%=      5-min Rain = 0
KPD3 261239Z 14010KT 20/20 A3001 RMK A01 T01960195  RH  099%=      5-min Rain = 0
KPD3 261240Z 14011KT 20/20 A3001 RMK A01 T01960195  RH  099%=      5-min Rain = 0
KPD3 261241Z 13009KT 20/20 A3001 RMK A01 T01970195  RH  099%=      5-min Rain = 0
KPD3 261242Z 13010KT 20/20 A3001 RMK A01 T01960195  RH  099%=      5-min Rain = 0
KPD3 261243Z 14009KT 20/20 A3001 RMK A01 T01960195  RH  099%=      5-min Rain = 0
KPD3 261244Z 14009KT 20/20 A3001 RMK A01 T01960195  RH  099%=      5-min Rain = 0
KPD3 261245Z 14009KT 20/20 A3001 RMK A01 T01960195  RH  099%=      5-min Rain = 0
KPD3 261246Z 13009KT 20/20 A3001 RMK A01 T01960195  RH  099%=      5-min Rain = 0
KPD3 261247Z 14009KT 20/20 A3001 RMK A01 T01960195  RH  099%=      5-min Rain = 0
KPD3 261248Z 14010KT 20/20 A3001 RMK A01 T01960195  RH  099%=      5-min Rain = 0
KPD3 261249Z 14010KT 20/20 A3001 RMK A01 T01960195  RH  099%=      5-min Rain = 0
KPD3 261250Z 14012KT 20/20 A3001 RMK A01 T01960195  RH  099%=      5-min Rain = 0
KPD3 261251Z 14012KT 20/20 A3001 RMK A01 T01960195  RH  099%=      5-min Rain = 0
KPD3 261252Z 14011KT 20/20 A3001 RMK A01 T01960195  RH  099%=      5-min Rain = 0
KPD3 261253Z 14011KT 20/20 A3001 RMK A01 T01960195  RH  099%=      5-min Rain = 0
KPD3 261254Z 15010KT 20/20 A3001 RMK A01 T01960195  RH  099%=      5-min Rain = 0
KPD3 261255Z 14011KT 20/20 A3001 RMK A01 T01960195  RH  099%=      5-min Rain = 0
KPD3 261256Z 14010KT 20/20 A3001 RMK A01 T01960195  RH  099%=      5-min Rain = 0
KPD3 261257Z 15010KT 20/20 A3001 RMK A01 T01960195  RH  099%=      5-min Rain = 0
KPD3 261258Z 14011KT 20/20 A3001 RMK A01 T01960195  RH  099%=      5-min Rain = 0
KPD3 261259Z 14010KT 20/20 A3001 RMK A01 T01960195  RH  099%=      5-min Rain = 0
KPD3 261300Z 14010KT 20/20 A3001 RMK A01 T01960195  RH  099%=      5-min Rain = 0
KPD3 261301Z 14012KT 20/20 A3001 RMK A01 T01970196  RH  099%=      5-min Rain = 0
KPD3 261302Z 14010KT 20/20 A3001 RMK A01 T01970195  RH  099%=      5-min Rain = 0
KPD3 261303Z 14009KT 20/20 A3001 RMK A01 T01970195  RH  099%=      5-min Rain = 0
KPD3 261304Z 14010KT 20/20 A3001 RMK A01 T01970195  RH  099%=      5-min Rain = 0
KPD3 261305Z 14012KT 20/20 A3001 RMK A01 T01970196  RH  099%=      5-min Rain = 0
KPD3 261306Z 14010KT 20/20 A3001 RMK A01 T01970196  RH  099%=      5-min Rain = 0
KPD3 261307Z 14011KT 20/20 A3001 RMK A01 T01970196  RH  099%=      5-min Rain = 0
KPD3 261308Z 14013KT 20/20 A3001 RMK A01 T01970196  RH  099%=      5-min Rain = 0
KPD3 261309Z 14011KT 20/20 A3001 RMK A01 T01970196  RH  099%=      5-min Rain = 0
KPD3 261310Z 15012KT 20/20 A3001 RMK A01 T01970196  RH  099%=      5-min Rain = 0
KPD3 261311Z 14011KT 20/20 A3001 RMK A01 T01970195  RH  099%=      5-min Rain = 0
KPD3 261312Z 14010KT 20/20 A3001 RMK A01 T01980196  RH  099%=      5-min Rain = 0
KPD3 261313Z 14009KT 20/20 A3001 RMK A01 T01980196  RH  099%=      5-min Rain = 0
KPD3 261314Z 14013KT 20/20 A3001 RMK A01 T01980196  RH  099%=      5-min Rain = 0
KPD3 261315Z 13011KT 20/20 A3001 RMK A01 T01980196  RH  099%=      5-min Rain = 0
KPD3 261316Z 14011KT 20/20 A3001 RMK A01 T01980196  RH  099%=      5-min Rain = 0
KPD3 261317Z 14009KT 20/20 A3001 RMK A01 T01980196  RH  099%=      5-min Rain = 0
KPD3 261318Z 14011KT 20/20 A3001 RMK A01 T01980196  RH  099%=      5-min Rain = 0
KPD3 261319Z 14012KT 20/20 A3001 RMK A01 T01980197  RH  099%=      5-min Rain = 0
KPD3 261320Z 14011KT 20/20 A3001 RMK A01 T01980196  RH  099%=      5-min Rain = 0
KPD3 261321Z 14011KT 20/20 A3001 RMK A01 T01980196  RH  099%=      5-min Rain = 0
KPD3 261322Z 14011KT 20/20 A3001 RMK A01 T01980196  RH  099%=      5-min Rain = 0
KPD3 261323Z 14012KT 20/20 A3001 RMK A01 T01980196  RH  099%=      5-min Rain = 0
KPD3 261324Z 14011KT 20/20 A3001 RMK A01 T01980196  RH  099%=      5-min Rain = 0
KPD3 261325Z 13011KT 20/20 A3001 RMK A01 T01980196  RH  099%=      5-min Rain = 0
KPD3 261326Z 14010KT 20/20 A3001 RMK A01 T01980196  RH  099%=      5-min Rain = 0
KPD3 261327Z 14012KT 20/20 A3001 RMK A01 T01990197  RH  099%=      5-min Rain = 0
KPD3 261328Z 13012KT 20/20 A3001 RMK A01 T01990197  RH  099%=      5-min Rain = 0
KPD3 261329Z 14014KT 20/20 A3001 RMK A01 T01990196  RH  099%=      5-min Rain = 0
KPD3 261330Z 14013KT 20/20 A3001 RMK A01 T01980196  RH  099%=      5-min Rain = 0
KPD3 261331Z 14012KT 20/20 A3001 RMK A01 T01990196  RH  099%=      5-min Rain = 0
KPD3 261332Z 14012KT 20/20 A3001 RMK A01 T01980196  RH  099%=      5-min Rain = 0
KPD3 261333Z 14011KT 20/20 A3001 RMK A01 T01990196  RH  099%=      5-min Rain = 0
KPD3 261334Z 14011KT 20/20 A3001 RMK A01 T01980196  RH  099%=      5-min Rain = 0
KPD3 261335Z 14011KT 20/20 A3001 RMK A01 T01980196  RH  099%=      5-min Rain = 0
KPD3 261336Z 14012KT 20/20 A3001 RMK A01 T01990197  RH  099%=      5-min Rain = 0
KPD3 261337Z 13012KT 20/20 A3001 RMK A01 T01990197  RH  099%=      5-min Rain = 0
KPD3 261338Z 13013KT 20/20 A3001 RMK A01 T01980196  RH  099%=      5-min Rain = 0
KPD3 261339Z 13011KT 20/20 A3001 RMK A01 T01990196  RH  099%=      5-min Rain = 0
KPD3 261340Z 14013KT 20/20 A3001 RMK A01 T01990197  RH  099%=      5-min Rain = 0
KPD3 261341Z 13012KT 20/20 A3001 RMK A01 T01990197  RH  099%=      5-min Rain = 0
KPD3 261342Z 13011KT 20/20 A3001 RMK A01 T01990197  RH  099%=      5-min Rain = 0
KPD3 261343Z 13012KT 20/20 A3001 RMK A01 T01990197  RH  099%=      5-min Rain = 0
KPD3 261344Z 13012KT 20/20 A3001 RMK A01 T01990197  RH  099%=      5-min Rain = 0
KPD3 261345Z 13014KT 20/20 A3001 RMK A01 T02000197  RH  099%=      5-min Rain = 0
KPD3 261346Z 13012KT 20/20 A3001 RMK A01 T02000197  RH  099%=      5-min Rain = 0
KPD3 261347Z 13011KT 20/20 A3001 RMK A01 T01990197  RH  099%=      5-min Rain = 0
KPD3 261348Z 14011KT 20/20 A3001 RMK A01 T01990197  RH  098%=      5-min Rain = 0
KPD3 261349Z 13013KT 20/20 A3001 RMK A01 T02000198  RH  099%=      5-min Rain = 0
KPD3 261350Z 14014KT 20/20 A3001 RMK A01 T02000197  RH  098%=      5-min Rain = 0
KPD3 261351Z 13015KT 20/20 A3001 RMK A01 T02000197  RH  098%=      5-min Rain = 0
KPD3 261352Z 13015KT 20/20 A3001 RMK A01 T02000197  RH  098%=      5-min Rain = 0
KPD3 261353Z 13012KT 20/20 A3001 RMK A01 T02000197  RH  098%=      5-min Rain = 0
KPD3 261354Z 13012KT 20/20 A3001 RMK A01 T02000197  RH  098%=      5-min Rain = 0
KPD3 261355Z 14012KT 20/20 A3001 RMK A01 T02000198  RH  098%=      5-min Rain = 0
KPD3 261356Z 14012KT 20/20 A3001 RMK A01 T02010198  RH  098%=      5-min Rain = 0
KPD3 261357Z 14011KT 20/20 A3001 RMK A01 T02000198  RH  098%=      5-min Rain = 0
KPD3 261358Z 14012KT 20/20 A3001 RMK A01 T02000197  RH  098%=      5-min Rain = 0
KPD3 261359Z 14012KT 20/20 A3001 RMK A01 T02000197  RH  098%=      5-min Rain = 0
KPD3 261400Z 14015KT 20/20 A3001 RMK A01 T02000197  RH  098%=      5-min Rain = 0
KPD3 261401Z 14012KT 20/20 A3001 RMK A01 T02000197  RH  098%=      5-min Rain = 0
KPD3 261402Z 14013KT 20/20 A3001 RMK A01 T02000197  RH  098%=      5-min Rain = 0
KPD3 261403Z 14011KT 20/20 A3001 RMK A01 T02000197  RH  098%=      5-min Rain = 0
KPD3 261404Z 14010KT 20/20 A3001 RMK A01 T02000197  RH  098%=      5-min Rain = 0
KPD3 261405Z 14011KT 20/20 A3001 RMK A01 T02000197  RH  098%=      5-min Rain = 0
KPD3 261406Z 14013KT 20/20 A3002 RMK A01 T02000198  RH  098%=      5-min Rain = 0
KPD3 261407Z 14011KT 20/20 A3002 RMK A01 T02000198  RH  098%=      5-min Rain = 0
KPD3 261408Z 14010KT 20/20 A3002 RMK A01 T02010198  RH  098%=      5-min Rain = 0
KPD3 261409Z 14011KT 20/20 A3002 RMK A01 T02010198  RH  098%=      5-min Rain = 0
KPD3 261410Z 14010KT 20/20 A3002 RMK A01 T02010198  RH  098%=      5-min Rain = 0
KPD3 261411Z 14010KT 20/20 A3002 RMK A01 T02010198  RH  098%=      5-min Rain = 0
KPD3 261412Z 14013KT 20/20 A3002 RMK A01 T02010198  RH  098%=      5-min Rain = 0
KPD3 261413Z 14013KT 20/20 A3002 RMK A01 T02010198  RH  098%=      5-min Rain = 0
KPD3 261414Z 14012KT 20/20 A3002 RMK A01 T02010198  RH  098%=      5-min Rain = 0
KPD3 261415Z 14012KT 20/20 A3002 RMK A01 T02010198  RH  098%=      5-min Rain = 0
KPD3 261416Z 14012KT 20/20 A3002 RMK A01 T02010198  RH  098%=      5-min Rain = 0
KPD3 261417Z 14013KT 20/20 A3002 RMK A01 T02010198  RH  098%=      5-min Rain = 0
KPD3 261418Z 14013KT 20/20 A3002 RMK A01 T02000197  RH  098%=      5-min Rain = 0
KPD3 261419Z 14012KT 20/20 A3002 RMK A01 T02000197  RH  098%=      5-min Rain = 0
KPD3 261420Z 15011KT 20/20 A3002 RMK A01 T02000197  RH  098%=      5-min Rain = 0
KPD3 261421Z 14011KT 20/20 A3002 RMK A01 T02000197  RH  098%=      5-min Rain = 0
KPD3 261422Z 15012KT 20/20 A3002 RMK A01 T02000197  RH  098%=      5-min Rain = 0
KPD3 261423Z 15011KT 20/20 A3002 RMK A01 T02010198  RH  098%=      5-min Rain = 0
KPD3 261424Z 14013KT 20/20 A3002 RMK A01 T02000197  RH  098%=      5-min Rain = 0
KPD3 261425Z 14013KT 20/20 A3002 RMK A01 T02010197  RH  098%=      5-min Rain = 0
KPD3 261426Z 15012KT 20/20 A3002 RMK A01 T02000197  RH  098%=      5-min Rain = 0
KPD3 261427Z 15011KT 20/20 A3002 RMK A01 T02000197  RH  098%=      5-min Rain = 0
KPD3 261428Z 14010KT 20/20 A3003 RMK A01 T02000197  RH  098%=      5-min Rain = 0
KPD3 261429Z 15009KT 20/20 A3003 RMK A01 T02000197  RH  098%=      5-min Rain = 0
KPD3 261430Z 15011KT 20/20 A3003 RMK A01 T02000197  RH  098%=      5-min Rain = 0
KPD3 261431Z 15010KT 20/20 A3003 RMK A01 T02000197  RH  098%=      5-min Rain = 0
KPD3 261432Z 14011KT 20/20 A3003 RMK A01 T02000197  RH  098%=      5-min Rain = 0
KPD3 261433Z 15011KT 20/20 A3003 RMK A01 T02000197  RH  098%=      5-min Rain = 0
KPD3 261434Z 15011KT 20/20 A3003 RMK A01 T02000197  RH  098%=      5-min Rain = 0
KPD3 261435Z 15010KT 20/20 A3003 RMK A01 T02000197  RH  098%=      5-min Rain = 0
KPD3 261436Z 15011KT 20/20 A3003 RMK A01 T02010197  RH  098%=      5-min Rain = 0
KPD3 261437Z 15010KT 20/20 A3003 RMK A01 T02000197  RH  098%=      5-min Rain = 0
KPD3 261438Z 15009KT 20/20 A3003 RMK A01 T02010198  RH  098%=      5-min Rain = 0
KPD3 261439Z 15011KT 20/20 A3003 RMK A01 T02010198  RH  098%=      5-min Rain = 0
KPD3 261440Z 15009KT 20/20 A3003 RMK A01 T02010198  RH  098%=      5-min Rain = 0
KPD3 261441Z 15010KT 20/20 A3003 RMK A01 T02010198  RH  098%=      5-min Rain = 0
KPD3 261442Z 15011KT 20/20 A3002 RMK A01 T02020198  RH  098%=      5-min Rain = 0
KPD3 261443Z 15011KT 20/20 A3002 RMK A01 T02010198  RH  098%=      5-min Rain = 0
KPD3 261444Z 15011KT 20/20 A3002 RMK A01 T02010198  RH  098%=      5-min Rain = 0
KPD3 261445Z 15013KT 20/20 A3002 RMK A01 T02010198  RH  098%=      5-min Rain = 0
KPD3 261446Z 15011KT 20/20 A3002 RMK A01 T02010198  RH  098%=      5-min Rain = 0
KPD3 261447Z 15012KT 20/20 A3002 RMK A01 T02020198  RH  098%=      5-min Rain = 0
KPD3 261448Z 15009KT 20/20 A3002 RMK A01 T02020198  RH  098%=      5-min Rain = 0
KPD3 261449Z 14010KT 20/20 A3002 RMK A01 T02020199  RH  098%=      5-min Rain = 0
KPD3 261450Z 14013KT 20/20 A3002 RMK A01 T02030199  RH  098%=      5-min Rain = 0
KPD3 261451Z 14012KT 20/20 A3002 RMK A01 T02030199  RH  098%=      5-min Rain = 0
KPD3 261452Z 15012KT 20/20 A3002 RMK A01 T02030199  RH  097%=      5-min Rain = 0
KPD3 261453Z 14011KT 20/20 A3002 RMK A01 T02030199  RH  097%=      5-min Rain = 0
KPD3 261454Z 14009KT 20/20 A3002 RMK A01 T02030199  RH  097%=      5-min Rain = 0
KPD3 261455Z 14010KT 20/20 A3002 RMK A01 T02040200  RH  098%=      5-min Rain = 0
KPD3 261456Z 14012KT 20/20 A3002 RMK A01 T02040200  RH  097%=      5-min Rain = 0
KPD3 261457Z 14011KT 20/20 A3002 RMK A01 T02040200  RH  097%=      5-min Rain = 0
KPD3 261458Z 14009KT 20/20 A3002 RMK A01 T02040200  RH  097%=      5-min Rain = 0
KPD3 261459Z 14009KT 20/20 A3002 RMK A01 T02040200  RH  097%=      5-min Rain = 0
KPD3 261500Z 14010KT 20/20 A3002 RMK A01 T02040200  RH  097%=      5-min Rain = 0
KPD3 261501Z 15011KT 20/20 A3002 RMK A01 T02040200  RH  097%=      5-min Rain = 0
KPD3 261502Z 15011KT 20/20 A3002 RMK A01 T02040199  RH  097%=      5-min Rain = 0
KPD3 261503Z 15011KT 20/20 A3002 RMK A01 T02040199  RH  097%=      5-min Rain = 0
KPD3 261504Z 15010KT 20/20 A3003 RMK A01 T02030198  RH  097%=      5-min Rain = 0
KPD3 261505Z 14010KT 20/20 A3003 RMK A01 T02030198  RH  097%=      5-min Rain = 0
KPD3 261506Z 14010KT 20/20 A3003 RMK A01 T02030198  RH  097%=      5-min Rain = 0
KPD3 261507Z 14011KT 20/20 A3003 RMK A01 T02030198  RH  097%=      5-min Rain = 0
KPD3 261508Z 15011KT 20/20 A3003 RMK A01 T02030198  RH  097%=      5-min Rain = 0
KPD3 261509Z 14009KT 20/20 A3003 RMK A01 T02030198  RH  097%=      5-min Rain = 0
KPD3 261510Z 14009KT 20/20 A3003 RMK A01 T02030199  RH  097%=      5-min Rain = 0
KPD3 261511Z 15010KT 20/20 A3003 RMK A01 T02040199  RH  097%=      5-min Rain = 0
KPD3 261512Z 14009KT 20/20 A3003 RMK A01 T02040199  RH  097%=      5-min Rain = 0
KPD3 261513Z 15011KT 20/20 A3003 RMK A01 T02040199  RH  097%=      5-min Rain = 0
KPD3 261514Z 16011KT 20/20 A3003 RMK A01 T02040199  RH  097%=      5-min Rain = 0
KPD3 261515Z 15011KT 20/20 A3002 RMK A01 T02040199  RH  097%=      5-min Rain = 0
KPD3 261516Z 15011KT 20/20 A3002 RMK A01 T02030198  RH  097%=      5-min Rain = 0
KPD3 261517Z 16012KT 20/20 A3002 RMK A01 T02030199  RH  097%=      5-min Rain = 0
KPD3 261518Z 16012KT 20/20 A3003 RMK A01 T02030198  RH  097%=      5-min Rain = 0
KPD3 261519Z 15011KT 20/20 A3003 RMK A01 T02030199  RH  097%=      5-min Rain = 0
KPD3 261520Z 15013KT 20/20 A3003 RMK A01 T02030199  RH  097%=      5-min Rain = 0
KPD3 261521Z 15011KT 20/20 A3002 RMK A01 T02030198  RH  097%=      5-min Rain = 0
KPD3 261522Z 15011KT 20/20 A3002 RMK A01 T02030199  RH  097%=      5-min Rain = 0
KPD3 261523Z 14008KT 20/20 A3002 RMK A01 T02030199  RH  097%=      5-min Rain = 0
KPD3 261524Z 15011KT 20/20 A3002 RMK A01 T02040200  RH  097%=      5-min Rain = 0
KPD3 261525Z 15012KT 20/20 A3002 RMK A01 T02040199  RH  097%=      5-min Rain = 0
KPD3 261526Z 15012KT 20/20 A3002 RMK A01 T02040199  RH  097%=      5-min Rain = 0
KPD3 261527Z 15013KT 20/20 A3002 RMK A01 T02030198  RH  097%=      5-min Rain = 0
KPD3 261528Z 15011KT 20/20 A3002 RMK A01 T02030198  RH  097%=      5-min Rain = 0
KPD3 261529Z 15011KT 20/20 A3002 RMK A01 T02030198  RH  097%=      5-min Rain = 0
KPD3 261530Z 15011KT 20/20 A3002 RMK A01 T02030198  RH  097%=      5-min Rain = 0
KPD3 261531Z 15011KT 20/20 A3002 RMK A01 T02030198  RH  097%=      5-min Rain = 0
KPD3 261532Z 15011KT 20/20 A3002 RMK A01 T02030198  RH  097%=      5-min Rain = 0
KPD3 261533Z 15009KT 20/20 A3003 RMK A01 T02030198  RH  097%=      5-min Rain = 0
KPD3 261534Z 15008KT 20/20 A3003 RMK A01 T02030198  RH  097%=      5-min Rain = 0
KPD3 261535Z 15009KT 20/20 A3003 RMK A01 T02030198  RH  097%=      5-min Rain = 0
KPD3 261536Z 15008KT 20/20 A3003 RMK A01 T02030199  RH  097%=      5-min Rain = 0
KPD3 261537Z 15009KT 20/20 A3003 RMK A01 T02030199  RH  097%=      5-min Rain = 0
KPD3 261538Z 15010KT 20/20 A3003 RMK A01 T02030199  RH  097%=      5-min Rain = 0
KPD3 261539Z 14009KT 20/20 A3003 RMK A01 T02030198  RH  097%=      5-min Rain = 0
KPD3 261540Z 14009KT 20/20 A3003 RMK A01 T02030199  RH  097%=      5-min Rain = 0
KPD3 261541Z 15010KT 20/20 A3003 RMK A01 T02030199  RH  097%=      5-min Rain = 0
KPD3 261542Z 15009KT 20/20 A3003 RMK A01 T02030199  RH  097%=      5-min Rain = 0
KPD3 261543Z 15009KT 20/20 A3003 RMK A01 T02040199  RH  097%=      5-min Rain = 0
KPD3 261544Z 15008KT 20/20 A3003 RMK A01 T02040199  RH  097%=      5-min Rain = 0
KPD3 261545Z 15009KT 20/20 A3003 RMK A01 T02040199  RH  097%=      5-min Rain = 0
KPD3 261546Z 14010KT 20/20 A3003 RMK A01 T02040199  RH  097%=      5-min Rain = 0
KPD3 261547Z 14011KT 20/20 A3002 RMK A01 T02040199  RH  097%=      5-min Rain = 0
KPD3 261548Z 15009KT 20/20 A3002 RMK A01 T02040199  RH  097%=      5-min Rain = 0
KPD3 261549Z 14010KT 20/20 A3002 RMK A01 T02040199  RH  097%=      5-min Rain = 0
KPD3 261550Z 15008KT 20/20 A3002 RMK A01 T02040199  RH  097%=      5-min Rain = 0
KPD3 261551Z 14010KT 21/20 A3002 RMK A01 T02050200  RH  097%=      5-min Rain = 0
KPD3 261552Z 14010KT 21/20 A3002 RMK A01 T02050200  RH  097%=      5-min Rain = 0
KPD3 261553Z 15010KT 21/20 A3002 RMK A01 T02050200  RH  097%=      5-min Rain = 0
KPD3 261554Z 15009KT 21/20 A3002 RMK A01 T02050200  RH  097%=      5-min Rain = 0
KPD3 261555Z 15009KT 21/20 A3002 RMK A01 T02050200  RH  097%=      5-min Rain = 0
KPD3 261556Z 15010KT 21/20 A3002 RMK A01 T02060200  RH  097%=      5-min Rain = 0
KPD3 261557Z 14011KT 21/20 A3002 RMK A01 T02050200  RH  096%=      5-min Rain = 0
KPD3 261558Z 14011KT 21/20 A3002 RMK A01 T02060200  RH  096%=      5-min Rain = 0
KPD3 261559Z 14012KT 21/20 A3002 RMK A01 T02050199  RH  096%=      5-min Rain = 0
KPD3 261600Z 14011KT 21/20 A3001 RMK A01 T02050199  RH  096%=      5-min Rain = 0
KPD3 261601Z 15011KT 21/20 A3001 RMK A01 T02050199  RH  096%=      5-min Rain = 0
KPD3 261602Z 15011KT 21/20 A3001 RMK A01 T02050199  RH  096%=      5-min Rain = 0
KPD3 261603Z 14010KT 21/20 A3001 RMK A01 T02050199  RH  096%=      5-min Rain = 0
KPD3 261604Z 14012KT 21/20 A3001 RMK A01 T02060200  RH  096%=      5-min Rain = 0
KPD3 261605Z 14013KT 21/20 A3001 RMK A01 T02050199  RH  096%=      5-min Rain = 0
KPD3 261606Z 14012KT 21/20 A3001 RMK A01 T02050199  RH  096%=      5-min Rain = 0
KPD3 261607Z 14013KT 21/20 A3001 RMK A01 T02050199  RH  096%=      5-min Rain = 0
KPD3 261608Z 14014KT 20/20 A3001 RMK A01 T02040198  RH  096%=      5-min Rain = 0
KPD3 261609Z 14013KT 20/20 A3001 RMK A01 T02040197  RH  096%=      5-min Rain = 0
KPD3 261610Z 14012KT 20/20 A3001 RMK A01 T02040198  RH  096%=      5-min Rain = 0
KPD3 261611Z 14013KT 20/20 A3001 RMK A01 T02040198  RH  096%=      5-min Rain = 0
KPD3 261612Z 14012KT 20/20 A3001 RMK A01 T02040198  RH  096%=      5-min Rain = 0
KPD3 261613Z 14012KT 20/20 A3001 RMK A01 T02040198  RH  096%=      5-min Rain = 0
KPD3 261614Z 14010KT 20/20 A3001 RMK A01 T02040198  RH  097%=      5-min Rain = 0
KPD3 261615Z 14014KT 20/20 A3001 RMK A01 T02040198  RH  097%=      5-min Rain = 0
KPD3 261616Z 14013KT 20/20 A3001 RMK A01 T02030198  RH  097%=      5-min Rain = 0
KPD3 261617Z 14015KT 20/20 A3001 RMK A01 T02020197  RH  097%=      5-min Rain = 0
KPD3 261618Z 14013KT 20/20 A3001 RMK A01 T02020197  RH  097%=      5-min Rain = 0
KPD3 261619Z 13013KT 20/20 A3001 RMK A01 T02010196  RH  097%=      5-min Rain = 0
KPD3 261620Z 13013KT 20/20 A3001 RMK A01 T02010196  RH  097%=      5-min Rain = 0
KPD3 261621Z 13013KT 20/20 A3001 RMK A01 T02010196  RH  097%=      5-min Rain = 0
KPD3 261622Z 14010KT 20/20 A3001 RMK A01 T02010196  RH  097%=      5-min Rain = 0
KPD3 261623Z 14012KT 20/20 A3001 RMK A01 T02010196  RH  097%=      5-min Rain = 0
KPD3 261624Z 13012KT 20/20 A3001 RMK A01 T02010196  RH  097%=      5-min Rain = 0
KPD3 261625Z 14013KT 20/20 A3001 RMK A01 T02000196  RH  097%=      5-min Rain = 0
KPD3 261626Z 13012KT 20/20 A3001 RMK A01 T02000196  RH  097%=      5-min Rain = 0
KPD3 261627Z 13013KT 20/20 A3001 RMK A01 T02000196  RH  098%=      5-min Rain = 0
KPD3 261628Z 13013KT 20/20 A3001 RMK A01 T02000196  RH  098%=      5-min Rain = 0
KPD3 261629Z 13013KT 20/20 A3001 RMK A01 T02000196  RH  098%=      5-min Rain = 0
KPD3 261630Z 13012KT 20/20 A3001 RMK A01 T02000196  RH  098%=      5-min Rain = 0
KPD3 261631Z 13010KT 20/20 A3001 RMK A01 T02000196  RH  098%=      5-min Rain = 0
KPD3 261632Z 13010KT 20/20 A3001 RMK A01 T02000197  RH  098%=      5-min Rain = 0
KPD3 261633Z 14013KT 20/20 A3001 RMK A01 T02010197  RH  098%=      5-min Rain = 0
KPD3 261634Z 13012KT 20/20 A3001 RMK A01 T02010197  RH  098%=      5-min Rain = 0
KPD3 261635Z 13013KT 20/20 A3001 RMK A01 T02000197  RH  098%=      5-min Rain = 0
KPD3 261636Z 13012KT 20/20 A3001 RMK A01 T02000196  RH  098%=      5-min Rain = 0
KPD3 261637Z 14012KT 20/20 A3001 RMK A01 T02000197  RH  098%=      5-min Rain = 0
KPD3 261638Z 14012KT 20/20 A3001 RMK A01 T02010197  RH  098%=      5-min Rain = 0
KPD3 261639Z 14011KT 20/20 A3001 RMK A01 T02000197  RH  098%=      5-min Rain = 0
KPD3 261640Z 14010KT 20/20 A3001 RMK A01 T02010197  RH  098%=      5-min Rain = 0
KPD3 261641Z 13012KT 20/20 A3001 RMK A01 T02010198  RH  098%=      5-min Rain = 0
KPD3 261642Z 14011KT 20/20 A3001 RMK A01 T02010198  RH  098%=      5-min Rain = 0
KPD3 261643Z 14013KT 20/20 A3001 RMK A01 T02010198  RH  098%=      5-min Rain = 0
KPD3 261644Z 14013KT 20/20 A3001 RMK A01 T02010198  RH  098%=      5-min Rain = 0
KPD3 261645Z 14012KT 20/20 A3001 RMK A01 T02000197  RH  098%=      5-min Rain = 0
KPD3 261646Z 14011KT 20/20 A3001 RMK A01 T02010197  RH  098%=      5-min Rain = 0
KPD3 261647Z 14011KT 20/20 A3001 RMK A01 T02000197  RH  098%=      5-min Rain = 0
KPD3 261648Z 14013KT 20/20 A3001 RMK A01 T02000197  RH  098%=      5-min Rain = 0
KPD3 261649Z 14014KT 20/20 A3001 RMK A01 T02010197  RH  098%=      5-min Rain = 0
KPD3 261650Z 14012KT 20/20 A3001 RMK A01 T02000197  RH  098%=      5-min Rain = 0
KPD3 261651Z 14012KT 20/20 A3001 RMK A01 T02000197  RH  098%=      5-min Rain = 0
KPD3 261652Z 14010KT 20/20 A3001 RMK A01 T02000197  RH  098%=      5-min Rain = 0
KPD3 261653Z 14013KT 20/20 A3001 RMK A01 T02000197  RH  098%=      5-min Rain = 0
KPD3 261654Z 14010KT 20/20 A3001 RMK A01 T02000197  RH  098%=      5-min Rain = 0
KPD3 261655Z 14011KT 20/20 A3001 RMK A01 T02010198  RH  098%=      5-min Rain = 0
KPD3 261656Z 14011KT 20/20 A3001 RMK A01 T02010197  RH  098%=      5-min Rain = 0
KPD3 261657Z 14012KT 20/20 A3001 RMK A01 T02010198  RH  098%=      5-min Rain = 0
KPD3 261658Z 14010KT 20/20 A3001 RMK A01 T02010198  RH  098%=      5-min Rain = 0
KPD3 261659Z 14012KT 20/20 A3001 RMK A01 T02010198  RH  098%=      5-min Rain = 0
KPD3 261700Z 15013KT 20/20 A3001 RMK A01 T02010198  RH  098%=      5-min Rain = 0
KPD3 261701Z 14014KT 20/20 A3001 RMK A01 T02010198  RH  098%=      5-min Rain = 0
KPD3 261702Z 15012KT 20/20 A3001 RMK A01 T02010197  RH  098%=      5-min Rain = 0
KPD3 261703Z 14010KT 20/20 A3001 RMK A01 T02010198  RH  098%=      5-min Rain = 0
KPD3 261704Z 14010KT 20/20 A3001 RMK A01 T02010198  RH  098%=      5-min Rain = 0
KPD3 261705Z 15010KT 20/20 A3001 RMK A01 T02020199  RH  098%=      5-min Rain = 0
KPD3 261706Z 14011KT 20/20 A3001 RMK A01 T02020199  RH  098%=      5-min Rain = 0
KPD3 261707Z 14011KT 20/20 A3001 RMK A01 T02020198  RH  098%=      5-min Rain = 0
KPD3 261708Z 14012KT 20/20 A3001 RMK A01 T02020199  RH  098%=      5-min Rain = 0
KPD3 261709Z 15013KT 20/20 A3001 RMK A01 T02020198  RH  098%=      5-min Rain = 0
KPD3 261710Z 14011KT 20/20 A3001 RMK A01 T02010197  RH  098%=      5-min Rain = 0
KPD3 261711Z 14012KT 20/20 A3001 RMK A01 T02000197  RH  098%=      5-min Rain = 0
KPD3 261712Z 14013KT 20/20 A3001 RMK A01 T02000197  RH  098%=      5-min Rain = 0
KPD3 261713Z 15012KT 20/20 A3001 RMK A01 T02000197  RH  098%=      5-min Rain = 0
KPD3 261714Z 15011KT 20/20 A3001 RMK A01 T02010197  RH  098%=      5-min Rain = 0
KPD3 261715Z 14012KT 20/20 A3001 RMK A01 T02010198  RH  098%=      5-min Rain = 0
KPD3 261716Z 15012KT 20/20 A3001 RMK A01 T02010198  RH  098%=      5-min Rain = 0
KPD3 261717Z 15011KT 20/20 A3001 RMK A01 T02010198  RH  098%=      5-min Rain = 0
KPD3 261718Z 15011KT 20/20 A3001 RMK A01 T02010198  RH  098%=      5-min Rain = 0
KPD3 261719Z 15013KT 20/20 A3001 RMK A01 T02010198  RH  098%=      5-min Rain = 0
KPD3 261720Z 15012KT 20/20 A3001 RMK A01 T02010198  RH  098%=      5-min Rain = 0
KPD3 261721Z 14011KT 20/20 A3001 RMK A01 T02010198  RH  098%=      5-min Rain = 0
KPD3 261722Z 14011KT 20/20 A3001 RMK A01 T02010197  RH  098%=      5-min Rain = 0
KPD3 261723Z 14012KT 20/20 A3001 RMK A01 T02010198  RH  098%=      5-min Rain = 0
KPD3 261724Z 14012KT 20/20 A3001 RMK A01 T02010198  RH  098%=      5-min Rain = 0
KPD3 261725Z 15013KT 20/20 A3001 RMK A01 T02020198  RH  098%=      5-min Rain = 0
KPD3 261726Z 15011KT 20/20 A3001 RMK A01 T02010198  RH  098%=      5-min Rain = 0
KPD3 261727Z 15014KT 20/20 A3001 RMK A01 T02010198  RH  098%=      5-min Rain = 0
KPD3 261728Z 15013KT 20/20 A3001 RMK A01 T02010198  RH  098%=      5-min Rain = 0
KPD3 261729Z 14009KT 20/20 A3001 RMK A01 T02010198  RH  098%=      5-min Rain = 0
KPD3 261730Z 13010KT 20/20 A3001 RMK A01 T02020199  RH  098%=      5-min Rain = 0
KPD3 261731Z 14012KT 20/20 A3001 RMK A01 T02020199  RH  098%=      5-min Rain = 0
KPD3 261732Z 14011KT 20/20 A3001 RMK A01 T02020199  RH  098%=      5-min Rain = 0
KPD3 261733Z 14011KT 20/20 A3001 RMK A01 T02020199  RH  098%=      5-min Rain = 0
KPD3 261734Z 14014KT 20/20 A3001 RMK A01 T02030200  RH  098%=      5-min Rain = 0
KPD3 261735Z 15012KT 20/20 A3001 RMK A01 T02020199  RH  098%=      5-min Rain = 0
KPD3 261736Z 14011KT 20/20 A3001 RMK A01 T02020199  RH  098%=      5-min Rain = 0
KPD3 261737Z 14012KT 20/20 A3001 RMK A01 T02020199  RH  098%=      5-min Rain = 0
KPD3 261738Z 14010KT 20/20 A3001 RMK A01 T02020199  RH  098%=      5-min Rain = 0
KPD3 261739Z 14011KT 20/20 A3001 RMK A01 T02030200  RH  098%=      5-min Rain = 0
KPD3 261740Z 15012KT 20/20 A3001 RMK A01 T02030200  RH  098%=      5-min Rain = 0
KPD3 261741Z 15011KT 20/20 A3001 RMK A01 T02030200  RH  098%=      5-min Rain = 0
KPD3 261742Z 14011KT 20/20 A3001 RMK A01 T02030200  RH  098%=      5-min Rain = 0
KPD3 261743Z 14012KT 20/20 A3001 RMK A01 T02030200  RH  098%=      5-min Rain = 0
KPD3 261744Z 14012KT 20/20 A3001 RMK A01 T02030199  RH  098%=      5-min Rain = 0
KPD3 261745Z 14011KT 20/20 A3001 RMK A01 T02030199  RH  098%=      5-min Rain = 0
KPD3 261746Z 14011KT 20/20 A3001 RMK A01 T02030199  RH  098%=      5-min Rain = 0
KPD3 261747Z 14011KT 20/20 A3001 RMK A01 T02030200  RH  098%=      5-min Rain = 0.01
KPD3 261748Z 14010KT 20/20 A3001 RMK A01 T02030200  RH  098%=      5-min Rain = 0
KPD3 261749Z 14012KT 20/20 A3001 RMK A01 T02030200  RH  098%=      5-min Rain = 0
KPD3 261750Z 15013KT 20/20 A3001 RMK A01 T02030199  RH  098%=      5-min Rain = 0
KPD3 261751Z 15014KT 20/20 A3001 RMK A01 T02030199  RH  098%=      5-min Rain = 0
KPD3 261752Z 15013KT 20/20 A3001 RMK A01 T02020199  RH  098%=      5-min Rain = 0
KPD3 261753Z 15015KT 20/20 A3001 RMK A01 T02020199  RH  098%=      5-min Rain = 0
KPD3 261754Z 14015KT 20/20 A3001 RMK A01 T02020199  RH  098%=      5-min Rain = 0
KPD3 261755Z 15013KT 20/20 A3001 RMK A01 T02020199  RH  098%=      5-min Rain = 0
KPD3 261756Z 15011KT 20/20 A3001 RMK A01 T02020199  RH  098%=      5-min Rain = 0
KPD3 261757Z 15013KT 20/20 A3001 RMK A01 T02030200  RH  098%=      5-min Rain = 0
KPD3 261758Z 14012KT 20/20 A3001 RMK A01 T02030200  RH  098%=      5-min Rain = 0
KPD3 261759Z 14011KT 20/20 A3001 RMK A01 T02030200  RH  098%=      5-min Rain = 0
KPD3 261800Z 14009KT 20/20 A3001 RMK A01 T02030200  RH  098%=      5-min Rain = 0
KPD3 261801Z 15012KT 20/20 A3001 RMK A01 T02030200  RH  098%=      5-min Rain = 0
KPD3 261802Z 14010KT 20/20 A3001 RMK A01 T02030200  RH  098%=      5-min Rain = 0
KPD3 261803Z 14015KT 20/20 A3001 RMK A01 T02020199  RH  098%=      5-min Rain = 0
KPD3 261804Z 14016KT 20/20 A3001 RMK A01 T02010198  RH  098%=      5-min Rain = 0
KPD3 261805Z 14015KT 20/20 A3001 RMK A01 T02010198  RH  098%=      5-min Rain = 0
KPD3 261806Z 14015KT 20/20 A3001 RMK A01 T02010198  RH  098%=      5-min Rain = 0
KPD3 261807Z 15015KT 20/20 A3001 RMK A01 T02010198  RH  098%=      5-min Rain = 0
KPD3 261808Z 15013KT 20/20 A3001 RMK A01 T02010198  RH  098%=      5-min Rain = 0
KPD3 261809Z 15015KT 20/20 A3001 RMK A01 T02010198  RH  098%=      5-min Rain = 0
KPD3 261810Z 15013KT 20/20 A3001 RMK A01 T02010198  RH  098%=      5-min Rain = 0
KPD3 261811Z 15011KT 20/20 A3001 RMK A01 T02010198  RH  098%=      5-min Rain = 0
KPD3 261812Z 14012KT 20/20 A3001 RMK A01 T02010198  RH  098%=      5-min Rain = 0
KPD3 261813Z 14013KT 20/20 A3001 RMK A01 T02010198  RH  098%=      5-min Rain = 0
KPD3 261814Z 14016KT 20/20 A3001 RMK A01 T02010198  RH  098%=      5-min Rain = 0
KPD3 261815Z 14015KT 20/20 A3001 RMK A01 T02000197  RH  098%=      5-min Rain = 0
KPD3 261816Z 14016KT 20/20 A3001 RMK A01 T02010197  RH  098%=      5-min Rain = 0
KPD3 261817Z 15015KT 20/20 A3001 RMK A01 T02010197  RH  098%=      5-min Rain = 0
KPD3 261818Z 15015KT 20/20 A30 RMK A01 T02010197  RH  098%=      5-min Rain = 0
KPD3 261819Z 15013KT 20/20 A30 RMK A01 T02010197  RH  098%=      5-min Rain = 0
KPD3 261820Z 15012KT 20/20 A30 RMK A01 T02020199  RH  098%=      5-min Rain = 0
KPD3 261821Z 15012KT 20/20 A30 RMK A01 T02030199  RH  098%=      5-min Rain = 0
KPD3 261822Z 15012KT 20/20 A30 RMK A01 T02030200  RH  098%=      5-min Rain = 0
KPD3 261823Z 15015KT 20/20 A30 RMK A01 T02030200  RH  098%=      5-min Rain = 0
KPD3 261824Z 15015KT 20/20 A30 RMK A01 T02030200  RH  098%=      5-min Rain = 0
KPD3 261825Z 15013KT 20/20 A30 RMK A01 T02030199  RH  098%=      5-min Rain = 0
KPD3 261826Z 15012KT 20/20 A30 RMK A01 T02030199  RH  098%=      5-min Rain = 0
KPD3 261827Z 15015KT 20/20 A30 RMK A01 T02030199  RH  098%=      5-min Rain = 0
KPD3 261828Z 14013KT 20/20 A30 RMK A01 T02030200  RH  098%=      5-min Rain = 0
KPD3 261829Z 15014KT 20/20 A30 RMK A01 T02030199  RH  098%=      5-min Rain = 0
KPD3 261830Z 14013KT 20/20 A30 RMK A01 T02030199  RH  098%=      5-min Rain = 0
KPD3 261831Z 14013KT 20/20 A30 RMK A01 T02030199  RH  098%=      5-min Rain = 0
KPD3 261832Z 14014KT 20/20 A30 RMK A01 T02020199  RH  098%=      5-min Rain = 0
KPD3 261833Z 14015KT 20/20 A30 RMK A01 T02020198  RH  098%=      5-min Rain = 0
KPD3 261834Z 14015KT 20/20 A30 RMK A01 T02020198  RH  098%=      5-min Rain = 0
KPD3 261835Z 14015KT 20/20 A30 RMK A01 T02010198  RH  098%=      5-min Rain = 0
KPD3 261836Z 14015KT 20/20 A30 RMK A01 T02010197  RH  098%=      5-min Rain = 0
KPD3 261837Z 14015KT 20/20 A30 RMK A01 T02010197  RH  098%=      5-min Rain = 0
KPD3 261838Z 14014KT 20/20 A30 RMK A01 T02010197  RH  098%=      5-min Rain = 0
KPD3 261839Z 14013KT 20/20 A30 RMK A01 T02010198  RH  098%=      5-min Rain = 0
KPD3 261840Z 14014KT 20/20 A30 RMK A01 T02010198  RH  098%=      5-min Rain = 0
KPD3 261841Z 14014KT 20/20 A30 RMK A01 T02010198  RH  098%=      5-min Rain = 0
KPD3 261842Z 13013KT 20/20 A2999 RMK A01 T02010198  RH  098%=      5-min Rain = 0
KPD3 261843Z 14015KT 20/20 A2999 RMK A01 T02010198  RH  098%=      5-min Rain = 0
KPD3 261844Z 14012KT 20/20 A2999 RMK A01 T02010198  RH  098%=      5-min Rain = 0
KPD3 261845Z 14013KT 20/20 A2999 RMK A01 T02020199  RH  098%=      5-min Rain = 0
KPD3 261846Z 13012KT 20/20 A2999 RMK A01 T02020198  RH  098%=      5-min Rain = 0
KPD3 261847Z 14013KT 20/20 A2999 RMK A01 T02020198  RH  098%=      5-min Rain = 0
KPD3 261848Z 14014G19KT 20/20 A2999 RMK A01 T02020199  RH  098%=      5-min Rain = 0
KPD3 261849Z 14015KT 20/20 A2999 RMK A01 T02010198  RH  098%=      5-min Rain = 0
KPD3 261850Z 14012KT 20/20 A2999 RMK A01 T02010197  RH  098%=      5-min Rain = 0
KPD3 261851Z 14013KT 20/20 A30 RMK A01 T02010198  RH  098%=      5-min Rain = 0
KPD3 261852Z 14014KT 20/20 A30 RMK A01 T02010198  RH  098%=      5-min Rain = 0
KPD3 261853Z 14014KT 20/20 A30 RMK A01 T02010198  RH  098%=      5-min Rain = 0
KPD3 261854Z 14011KT 20/20 A30 RMK A01 T02010198  RH  098%=      5-min Rain = 0
KPD3 261855Z 14013KT 20/20 A30 RMK A01 T02010198  RH  098%=      5-min Rain = 0
KPD3 261856Z 14015KT 20/20 A30 RMK A01 T02010198  RH  098%=      5-min Rain = 0
KPD3 261857Z 14014KT 20/20 A30 RMK A01 T02000197  RH  098%=      5-min Rain = 0
KPD3 261858Z 15011KT 20/20 A30 RMK A01 T02010197  RH  098%=      5-min Rain = 0
KPD3 261859Z 15012KT 20/20 A30 RMK A01 T02010198  RH  098%=      5-min Rain = 0
KPD3 261900Z 15014KT 20/20 A30 RMK A01 T02010197  RH  098%=      5-min Rain = 0
KPD3 261901Z 15016KT 20/20 A30 RMK A01 T02000197  RH  098%=      5-min Rain = 0
KPD3 261902Z 15017KT 20/20 A30 RMK A01 T01990196  RH  098%=      5-min Rain = 0
KPD3 261903Z 15015KT 20/20 A30 RMK A01 T02000196  RH  098%=      5-min Rain = 0
KPD3 261904Z 15015KT 20/20 A30 RMK A01 T02000197  RH  098%=      5-min Rain = 0
KPD3 261905Z 15013KT 20/20 A30 RMK A01 T02000197  RH  098%=      5-min Rain = 0
KPD3 261906Z 15012KT 20/20 A30 RMK A01 T02010198  RH  098%=      5-min Rain = 0
KPD3 261907Z 15011KT 20/20 A30 RMK A01 T02020198  RH  098%=      5-min Rain = 0
KPD3 261908Z 14012KT 20/20 A30 RMK A01 T02020199  RH  098%=      5-min Rain = 0
KPD3 261909Z 14014KT 20/20 A30 RMK A01 T02020199  RH  098%=      5-min Rain = 0
KPD3 261910Z 14013KT 20/20 A30 RMK A01 T02020198  RH  098%=      5-min Rain = 0
KPD3 261911Z 15013KT 20/20 A30 RMK A01 T02020198  RH  098%=      5-min Rain = 0
KPD3 261912Z 15015KT 20/20 A30 RMK A01 T02010198  RH  098%=      5-min Rain = 0
KPD3 261913Z 15013KT 20/20 A30 RMK A01 T02010198  RH  098%=      5-min Rain = 0
KPD3 261914Z 14013KT 20/20 A30 RMK A01 T02010198  RH  098%=      5-min Rain = 0
KPD3 261915Z 14013KT 20/20 A30 RMK A01 T02020198  RH  098%=      5-min Rain = 0
KPD3 261916Z 14012KT 20/20 A30 RMK A01 T02020199  RH  098%=      5-min Rain = 0
KPD3 261917Z 14014KT 20/20 A30 RMK A01 T02030200  RH  098%=      5-min Rain = 0
KPD3 261918Z 14014KT 20/20 A30 RMK A01 T02030199  RH  098%=      5-min Rain = 0
KPD3 261919Z 14013G19KT 20/20 A30 RMK A01 T02020199  RH  098%=      5-min Rain = 0
KPD3 261920Z 15014KT 20/20 A30 RMK A01 T02020199  RH  098%=      5-min Rain = 0
KPD3 261921Z 14013KT 20/20 A30 RMK A01 T02020199  RH  098%=      5-min Rain = 0
KPD3 261922Z 14014KT 20/20 A30 RMK A01 T02020199  RH  098%=      5-min Rain = 0
KPD3 261923Z 15012KT 20/20 A30 RMK A01 T02020199  RH  098%=      5-min Rain = 0
KPD3 261924Z 14012KT 20/20 A30 RMK A01 T02020199  RH  098%=      5-min Rain = 0
KPD3 261925Z 15013KT 20/20 A30 RMK A01 T02020199  RH  098%=      5-min Rain = 0
KPD3 261926Z 15015KT 20/20 A30 RMK A01 T02020198  RH  098%=      5-min Rain = 0.01
KPD3 261927Z 15012KT 20/20 A30 RMK A01 T02010198  RH  098%=      5-min Rain = 0
KPD3 261928Z 15014KT 20/20 A30 RMK A01 T02010198  RH  098%=      5-min Rain = 0
KPD3 261929Z 15014KT 20/20 A30 RMK A01 T02020198  RH  098%=      5-min Rain = 0
KPD3 261930Z 14014KT 20/20 A30 RMK A01 T02020199  RH  098%=      5-min Rain = 0
KPD3 261931Z 14015KT 20/20 A30 RMK A01 T02030199  RH  098%=      5-min Rain = 0
KPD3 261932Z 14014KT 20/20 A2999 RMK A01 T02030199  RH  098%=      5-min Rain = 0
KPD3 261933Z 14015KT 20/20 A2999 RMK A01 T02030200  RH  098%=      5-min Rain = 0
KPD3 261934Z 15012KT 20/20 A2999 RMK A01 T02030199  RH  098%=      5-min Rain = 0
KPD3 261935Z 14014KT 20/20 A30 RMK A01 T02040200  RH  098%=      5-min Rain = 0
KPD3 261936Z 15015KT 21/20 A2999 RMK A01 T02050201  RH  098%=      5-min Rain = 0
KPD3 261937Z 15018KT 20/20 A2999 RMK A01 T02040201  RH  098%=      5-min Rain = 0
KPD3 261938Z 15018KT 20/20 A2999 RMK A01 T02040200  RH  098%=      5-min Rain = 0
KPD3 261939Z 15017KT 20/20 A30 RMK A01 T02040200  RH  097%=      5-min Rain = 0
KPD3 261940Z 15015KT 20/20 A30 RMK A01 T02040200  RH  097%=      5-min Rain = 0
KPD3 261941Z 15013KT 20/20 A30 RMK A01 T02040200  RH  097%=      5-min Rain = 0
KPD3 261942Z 15013KT 21/20 A30 RMK A01 T02050201  RH  097%=      5-min Rain = 0
KPD3 261943Z 14012KT 21/20 A30 RMK A01 T02050201  RH  098%=      5-min Rain = 0
KPD3 261944Z 14015KT 21/20 A30 RMK A01 T02060202  RH  098%=      5-min Rain = 0
KPD3 261945Z 14014KT 21/20 A30 RMK A01 T02050201  RH  097%=      5-min Rain = 0
KPD3 261946Z 14015KT 20/20 A30 RMK A01 T02040200  RH  097%=      5-min Rain = 0
KPD3 261947Z 15016KT 20/20 A30 RMK A01 T02040200  RH  098%=      5-min Rain = 0
KPD3 261948Z 15017KT 20/20 A30 RMK A01 T02040199  RH  097%=      5-min Rain = 0
KPD3 261949Z 15016KT 20/20 A30 RMK A01 T02030199  RH  097%=      5-min Rain = 0
KPD3 261950Z 15017KT 20/20 A30 RMK A01 T02030199  RH  097%=      5-min Rain = 0
KPD3 261951Z 16015KT 20/20 A30 RMK A01 T02030199  RH  097%=      5-min Rain = 0
KPD3 261952Z 15015KT 20/20 A30 RMK A01 T02030199  RH  097%=      5-min Rain = 0
KPD3 261953Z 15013KT 20/20 A30 RMK A01 T02030199  RH  097%=      5-min Rain = 0
KPD3 261954Z 16016KT 20/20 A30 RMK A01 T02040200  RH  097%=      5-min Rain = 0
KPD3 261955Z 15014KT 20/20 A30 RMK A01 T02040199  RH  097%=      5-min Rain = 0
KPD3 261956Z 15012KT 20/20 A30 RMK A01 T02040200  RH  097%=      5-min Rain = 0
KPD3 261957Z 15013KT 20/20 A30 RMK A01 T02040200  RH  098%=      5-min Rain = 0
KPD3 261958Z 15014KT 20/20 A30 RMK A01 T02040200  RH  098%=      5-min Rain = 0
KPD3 261959Z 15015KT 20/20 A30 RMK A01 T02040200  RH  098%=      5-min Rain = 0
KPD3 262000Z 15014KT 20/20 A30 RMK A01 T02040200  RH  098%=      5-min Rain = 0
KPD3 262001Z 15013KT 20/20 A30 RMK A01 T02030200  RH  098%=      5-min Rain = 0
KPD3 262002Z 15016KT 20/20 A30 RMK A01 T02030200  RH  098%=      5-min Rain = 0
KPD3 262003Z 15014KT 20/20 A30 RMK A01 T02030199  RH  098%=      5-min Rain = 0
KPD3 262004Z 15013KT 20/20 A30 RMK A01 T02030200  RH  098%=      5-min Rain = 0
KPD3 262005Z 15012KT 20/20 A30 RMK A01 T02030200  RH  098%=      5-min Rain = 0
KPD3 262006Z 15012KT 20/20 A30 RMK A01 T02030200  RH  098%=      5-min Rain = 0
KPD3 262007Z 15013KT 20/20 A30 RMK A01 T02040200  RH  098%=      5-min Rain = 0
KPD3 262008Z 15013KT 20/20 A30 RMK A01 T02030200  RH  098%=      5-min Rain = 0
KPD3 262009Z 16014KT 20/20 A30 RMK A01 T02030199  RH  098%=      5-min Rain = 0
KPD3 262010Z 15014KT 20/20 A30 RMK A01 T02030199  RH  098%=      5-min Rain = 0
KPD3 262011Z 15015KT 20/20 A30 RMK A01 T02030199  RH  098%=      5-min Rain = 0
KPD3 262012Z 15014KT 20/20 A30 RMK A01 T02020199  RH  098%=      5-min Rain = 0
KPD3 262013Z 16015KT 20/20 A2999 RMK A01 T02020199  RH  098%=      5-min Rain = 0
KPD3 262014Z 15014KT 20/20 A2999 RMK A01 T02020199  RH  098%=      5-min Rain = 0.01
KPD3 262015Z 15012KT 20/20 A2999 RMK A01 T02020199  RH  098%=      5-min Rain = 0
KPD3 262016Z 15014G19KT 20/20 A2999 RMK A01 T02030199  RH  098%=      5-min Rain = 0
KPD3 262017Z 15016KT 20/20 A2999 RMK A01 T02030200  RH  098%=      5-min Rain = 0
KPD3 262018Z 16016KT 20/20 A2999 RMK A01 T02030199  RH  098%=      5-min Rain = 0
KPD3 262019Z 15013KT 20/20 A2999 RMK A01 T02020199  RH  098%=      5-min Rain = 0
KPD3 262020Z 15015KT 20/20 A2999 RMK A01 T02020199  RH  098%=      5-min Rain = 0
KPD3 262021Z 15013KT 20/20 A2999 RMK A01 T02020199  RH  098%=      5-min Rain = 0
KPD3 262022Z 15015KT 20/20 A2999 RMK A01 T02020199  RH  098%=      5-min Rain = 0
KPD3 262023Z 16013KT 20/20 A2999 RMK A01 T02030199  RH  098%=      5-min Rain = 0
KPD3 262024Z 16015KT 20/20 A2999 RMK A01 T02030200  RH  098%=      5-min Rain = 0
KPD3 262025Z 16014KT 20/20 A2999 RMK A01 T02030199  RH  098%=      5-min Rain = 0
KPD3 262026Z 15013KT 20/20 A2999 RMK A01 T02030199  RH  098%=      5-min Rain = 0
KPD3 262027Z 15012KT 20/20 A2999 RMK A01 T02030199  RH  098%=      5-min Rain = 0
KPD3 262028Z 15015KT 20/20 A2999 RMK A01 T02030200  RH  098%=      5-min Rain = 0
KPD3 262029Z 15014KT 20/20 A2999 RMK A01 T02030200  RH  098%=      5-min Rain = 0
KPD3 262030Z 15013KT 20/20 A2999 RMK A01 T02030200  RH  098%=      5-min Rain = 0
KPD3 262031Z 15012KT 20/20 A2999 RMK A01 T02030200  RH  098%=      5-min Rain = 0
KPD3 262032Z 16012KT 20/20 A2999 RMK A01 T02040201  RH  098%=      5-min Rain = 0
KPD3 262033Z 16015KT 20/20 A2999 RMK A01 T02040201  RH  098%=      5-min Rain = 0
KPD3 262034Z 16012KT 20/20 A2999 RMK A01 T02040201  RH  098%=      5-min Rain = 0
KPD3 262035Z 16015KT 20/20 A2999 RMK A01 T02040201  RH  098%=      5-min Rain = 0
KPD3 262036Z 15012KT 20/20 A2999 RMK A01 T02040201  RH  098%=      5-min Rain = 0
KPD3 262037Z 15015KT 20/20 A2999 RMK A01 T02040201  RH  098%=      5-min Rain = 0
KPD3 262038Z 15014KT 20/20 A2999 RMK A01 T02040200  RH  098%=      5-min Rain = 0
KPD3 262039Z 15013KT 20/20 A2999 RMK A01 T02040201  RH  098%=      5-min Rain = 0
KPD3 262040Z 15016KT 20/20 A2998 RMK A01 T02040200  RH  098%=      5-min Rain = 0
KPD3 262041Z 15015KT 20/20 A2998 RMK A01 T02030199  RH  098%=      5-min Rain = 0
KPD3 262042Z 15017KT 20/20 A2998 RMK A01 T02030200  RH  098%=      5-min Rain = 0
KPD3 262043Z 15017KT 20/20 A2998 RMK A01 T02030199  RH  098%=      5-min Rain = 0
KPD3 262044Z 15015KT 20/20 A2998 RMK A01 T02030199  RH  098%=      5-min Rain = 0
KPD3 262045Z 15015KT 20/20 A2998 RMK A01 T02030199  RH  098%=      5-min Rain = 0
KPD3 262046Z 15014KT 20/20 A2998 RMK A01 T02030199  RH  098%=      5-min Rain = 0
KPD3 262047Z 16015KT 20/20 A2998 RMK A01 T02030199  RH  098%=      5-min Rain = 0
KPD3 262048Z 16015KT 20/20 A2998 RMK A01 T02030199  RH  098%=      5-min Rain = 0
KPD3 262049Z 16014KT 20/20 A2998 RMK A01 T02030200  RH  098%=      5-min Rain = 0
KPD3 262050Z 15013KT 20/20 A2998 RMK A01 T02030200  RH  098%=      5-min Rain = 0
KPD3 262051Z 15015KT 20/20 A2998 RMK A01 T02030200  RH  098%=      5-min Rain = 0
KPD3 262052Z 15015KT 20/20 A2998 RMK A01 T02030199  RH  098%=      5-min Rain = 0
KPD3 262053Z 15015KT 20/20 A2998 RMK A01 T02040200  RH  098%=      5-min Rain = 0
KPD3 262054Z 15015KT 20/20 A2998 RMK A01 T02040200  RH  098%=      5-min Rain = 0
KPD3 262055Z 15015KT 20/20 A2998 RMK A01 T02040201  RH  098%=      5-min Rain = 0
KPD3 262056Z 15014KT 21/20 A2998 RMK A01 T02050201  RH  098%=      5-min Rain = 0
KPD3 262057Z 15015KT 21/20 A2998 RMK A01 T02060202  RH  098%=      5-min Rain = 0
KPD3 262058Z 15014KT 21/20 A2998 RMK A01 T02060202  RH  098%=      5-min Rain = 0
KPD3 262059Z 15011KT 21/20 A2998 RMK A01 T02070203  RH  098%=      5-min Rain = 0
KPD3 262100Z 14011KT 21/20 A2998 RMK A01 T02080204  RH  098%=      5-min Rain = 0
KPD3 262101Z 15015KT 21/21 A2997 RMK A01 T02080205  RH  098%=      5-min Rain = 0
KPD3 262102Z 15013KT 21/20 A2997 RMK A01 T02080204  RH  097%=      5-min Rain = 0
KPD3 262103Z 15014KT 21/20 A2997 RMK A01 T02070203  RH  098%=      5-min Rain = 0
KPD3 262104Z 15016KT 21/20 A2997 RMK A01 T02070203  RH  097%=      5-min Rain = 0
KPD3 262105Z 15016KT 21/20 A2997 RMK A01 T02070203  RH  097%=      5-min Rain = 0
KPD3 262106Z 14015KT 21/20 A2997 RMK A01 T02070203  RH  097%=      5-min Rain = 0
KPD3 262107Z 15013KT 21/20 A2997 RMK A01 T02070203  RH  097%=      5-min Rain = 0
KPD3 262108Z 14014KT 21/20 A2997 RMK A01 T02070203  RH  097%=      5-min Rain = 0
KPD3 262109Z 14014KT 21/20 A2997 RMK A01 T02070202  RH  097%=      5-min Rain = 0
KPD3 262110Z 14016KT 21/20 A2997 RMK A01 T02070202  RH  097%=      5-min Rain = 0
KPD3 262111Z 15014KT 21/20 A2997 RMK A01 T02060202  RH  097%=      5-min Rain = 0
KPD3 262112Z 15012KT 21/20 A2997 RMK A01 T02070202  RH  097%=      5-min Rain = 0
KPD3 262113Z 14015G20KT 21/20 A2997 RMK A01 T02070203  RH  097%=      5-min Rain = 0
KPD3 262114Z 15018KT 21/20 A2997 RMK A01 T02070202  RH  097%=      5-min Rain = 0
KPD3 262115Z 14015KT 21/20 A2996 RMK A01 T02060201  RH  097%=      5-min Rain = 0
KPD3 262116Z 14015KT 21/20 A2996 RMK A01 T02060201  RH  097%=      5-min Rain = 0
KPD3 262117Z 14016KT 21/20 A2996 RMK A01 T02060202  RH  097%=      5-min Rain = 0
KPD3 262118Z 14014KT 21/20 A2996 RMK A01 T02070202  RH  097%=      5-min Rain = 0
KPD3 262119Z 14017KT 21/20 A2996 RMK A01 T02070202  RH  097%=      5-min Rain = 0
KPD3 262120Z 14015KT 21/20 A2996 RMK A01 T02070202  RH  097%=      5-min Rain = 0
KPD3 262121Z 14014KT 21/20 A2996 RMK A01 T02070202  RH  097%=      5-min Rain = 0
KPD3 262122Z 14013KT 21/20 A2996 RMK A01 T02070202  RH  097%=      5-min Rain = 0
KPD3 262123Z 15015KT 21/20 A2996 RMK A01 T02070202  RH  097%=      5-min Rain = 0
KPD3 262124Z 15014KT 21/20 A2996 RMK A01 T02070202  RH  097%=      5-min Rain = 0
KPD3 262125Z 15011G16KT 21/20 A2996 RMK A01 T02070202  RH  097%=      5-min Rain = 0
KPD3 262126Z 15014KT 21/20 A2996 RMK A01 T02070202  RH  097%=      5-min Rain = 0
KPD3 262127Z 15015KT 21/20 A2996 RMK A01 T02070202  RH  097%=      5-min Rain = 0
KPD3 262128Z 15011KT 21/20 A2996 RMK A01 T02070202  RH  097%=      5-min Rain = 0
KPD3 262129Z 15012KT 21/20 A2996 RMK A01 T02080203  RH  097%=      5-min Rain = 0
KPD3 262130Z 15014KT 21/20 A2996 RMK A01 T02080202  RH  097%=      5-min Rain = 0
KPD3 262131Z 15012KT 21/20 A2996 RMK A01 T02080202  RH  096%=      5-min Rain = 0
KPD3 262132Z 15013KT 21/20 A2996 RMK A01 T02090203  RH  096%=      5-min Rain = 0
KPD3 262133Z 16015KT 21/20 A2996 RMK A01 T02090203  RH  096%=      5-min Rain = 0
KPD3 262134Z 16014KT 21/20 A2996 RMK A01 T02090202  RH  096%=      5-min Rain = 0
KPD3 262135Z 15012KT 21/20 A2996 RMK A01 T02090202  RH  096%=      5-min Rain = 0
KPD3 262136Z 15013KT 21/20 A2996 RMK A01 T02090202  RH  096%=      5-min Rain = 0
KPD3 262137Z 14013KT 21/20 A2996 RMK A01 T02090202  RH  096%=      5-min Rain = 0
KPD3 262138Z 15010KT 21/20 A2996 RMK A01 T02090202  RH  096%=      5-min Rain = 0
KPD3 262139Z 15012KT 21/20 A2995 RMK A01 T02090203  RH  096%=      5-min Rain = 0
KPD3 262140Z 15011KT 21/20 A2995 RMK A01 T02100203  RH  096%=      5-min Rain = 0
KPD3 262141Z 15012KT 21/20 A2995 RMK A01 T02100203  RH  096%=      5-min Rain = 0
KPD3 262142Z 15014KT 21/20 A2995 RMK A01 T02100203  RH  096%=      5-min Rain = 0
KPD3 262143Z 15015KT 21/20 A2995 RMK A01 T02100203  RH  096%=      5-min Rain = 0
KPD3 262144Z 15015KT 21/20 A2995 RMK A01 T02090202  RH  096%=      5-min Rain = 0
KPD3 262145Z 15013KT 21/20 A2995 RMK A01 T02090202  RH  096%=      5-min Rain = 0
KPD3 262146Z 15012KT 21/20 A2995 RMK A01 T02090202  RH  096%=      5-min Rain = 0
KPD3 262147Z 15013KT 21/20 A2995 RMK A01 T02090202  RH  096%=      5-min Rain = 0
KPD3 262148Z 15013KT 21/20 A2995 RMK A01 T02090202  RH  096%=      5-min Rain = 0
KPD3 262149Z 15013KT 21/20 A2995 RMK A01 T02090202  RH  096%=      5-min Rain = 0
KPD3 262150Z 15015KT 21/20 A2995 RMK A01 T02090202  RH  096%=      5-min Rain = 0
KPD3 262151Z 14013KT 21/20 A2995 RMK A01 T02090201  RH  096%=      5-min Rain = 0
KPD3 262152Z 15015KT 21/20 A2995 RMK A01 T02090202  RH  096%=      5-min Rain = 0
KPD3 262153Z 15014KT 21/20 A2994 RMK A01 T02090201  RH  096%=      5-min Rain = 0
KPD3 262154Z 14016KT 21/20 A2994 RMK A01 T02090202  RH  096%=      5-min Rain = 0
KPD3 262155Z 15016KT 21/20 A2994 RMK A01 T02090201  RH  096%=      5-min Rain = 0
KPD3 262156Z 13012KT 21/20 A2994 RMK A01 T02090201  RH  095%=      5-min Rain = 0
KPD3 262157Z 14015KT 21/20 A2994 RMK A01 T02090201  RH  095%=      5-min Rain = 0
KPD3 262158Z 14014KT 21/20 A2994 RMK A01 T02090201  RH  095%=      5-min Rain = 0
KPD3 262159Z 14016KT 21/20 A2994 RMK A01 T02080201  RH  095%=      5-min Rain = 0
KPD3 262200Z 14014KT 21/20 A2994 RMK A01 T02090201  RH  095%=      5-min Rain = 0
KPD3 262201Z 14014KT 21/20 A2994 RMK A01 T02090201  RH  095%=      5-min Rain = 0
KPD3 262202Z 14016KT 21/20 A2994 RMK A01 T02090201  RH  096%=      5-min Rain = 0
KPD3 262203Z 14013KT 21/20 A2994 RMK A01 T02090201  RH  095%=      5-min Rain = 0
KPD3 262204Z 14013KT 21/20 A2994 RMK A01 T02090202  RH  096%=      5-min Rain = 0
KPD3 262205Z 14013KT 21/20 A2993 RMK A01 T02090202  RH  096%=      5-min Rain = 0
KPD3 262206Z 13013KT 21/20 A2993 RMK A01 T02090202  RH  096%=      5-min Rain = 0
KPD3 262207Z 14015KT 21/20 A2993 RMK A01 T02090202  RH  096%=      5-min Rain = 0
KPD3 262208Z 13015KT 21/20 A2994 RMK A01 T02090202  RH  096%=      5-min Rain = 0
KPD3 262209Z 14015KT 21/20 A2994 RMK A01 T02100202  RH  095%=      5-min Rain = 0
KPD3 262210Z 14014KT 21/20 A2994 RMK A01 T02100202  RH  095%=      5-min Rain = 0
KPD3 262211Z 14011KT 21/20 A2994 RMK A01 T02100202  RH  095%=      5-min Rain = 0
KPD3 262212Z 14013KT 21/20 A2994 RMK A01 T02100202  RH  095%=      5-min Rain = 0
KPD3 262213Z 14012KT 21/20 A2994 RMK A01 T02090201  RH  095%=      5-min Rain = 0
KPD3 262214Z 15011KT 21/20 A2994 RMK A01 T02100202  RH  095%=      5-min Rain = 0
KPD3 262215Z 15011KT 21/20 A2994 RMK A01 T02100202  RH  095%=      5-min Rain = 0
KPD3 262216Z 15009KT 21/20 A2994 RMK A01 T02090202  RH  095%=      5-min Rain = 0
KPD3 262217Z 15011KT 21/20 A2994 RMK A01 T02090202  RH  095%=      5-min Rain = 0
KPD3 262218Z 15011KT 21/20 A2994 RMK A01 T02100202  RH  095%=      5-min Rain = 0
KPD3 262219Z 15010KT 21/20 A2994 RMK A01 T02100202  RH  095%=      5-min Rain = 0
KPD3 262220Z 15012KT 21/20 A2994 RMK A01 T02100202  RH  095%=      5-min Rain = 0
KPD3 262221Z 15010KT 21/20 A2994 RMK A01 T02100202  RH  095%=      5-min Rain = 0
KPD3 262222Z 15010KT 21/20 A2994 RMK A01 T02100202  RH  095%=      5-min Rain = 0
KPD3 262223Z 15010KT 21/20 A2993 RMK A01 T02100202  RH  095%=      5-min Rain = 0
KPD3 262224Z 14012KT 21/20 A2993 RMK A01 T02090202  RH  095%=      5-min Rain = 0
KPD3 262225Z 14010KT 21/20 A2993 RMK A01 T02090201  RH  095%=      5-min Rain = 0
KPD3 262226Z 14011KT 21/20 A2992 RMK A01 T02100202  RH  095%=      5-min Rain = 0
KPD3 262227Z 14013KT 21/20 A2992 RMK A01 T02100202  RH  095%=      5-min Rain = 0
KPD3 262228Z 14011KT 21/20 A2992 RMK A01 T02100202  RH  095%=      5-min Rain = 0
KPD3 262229Z 14011KT 21/20 A2992 RMK A01 T02110202  RH  095%=      5-min Rain = 0
KPD3 262230Z 14013KT 21/20 A2992 RMK A01 T02110202  RH  095%=      5-min Rain = 0
KPD3 262231Z 14012KT 21/20 A2992 RMK A01 T02120202  RH  095%=      5-min Rain = 0
KPD3 262232Z 14011KT 21/20 A2992 RMK A01 T02120204  RH  095%=      5-min Rain = 0
KPD3 262233Z 14011KT 21/20 A2992 RMK A01 T02130204  RH  095%=      5-min Rain = 0
KPD3 262234Z 14011KT 21/20 A2992 RMK A01 T02130203  RH  094%=      5-min Rain = 0
KPD3 262235Z 15011KT 21/20 A2992 RMK A01 T02130204  RH  094%=      5-min Rain = 0
KPD3 262236Z 15010KT 21/20 A2993 RMK A01 T02140204  RH  094%=      5-min Rain = 0
KPD3 262237Z 15009KT 21/20 A2993 RMK A01 T02140204  RH  094%=      5-min Rain = 0
KPD3 262238Z 15011KT 21/20 A2993 RMK A01 T02140204  RH  094%=      5-min Rain = 0
KPD3 262239Z 15012KT 21/20 A2993 RMK A01 T02140203  RH  094%=      5-min Rain = 0
KPD3 262240Z 15010KT 21/20 A2993 RMK A01 T02140204  RH  094%=      5-min Rain = 0
KPD3 262241Z 15010KT 22/20 A2993 RMK A01 T02150204  RH  094%=      5-min Rain = 0
KPD3 262242Z 15010KT 22/20 A2993 RMK A01 T02150204  RH  094%=      5-min Rain = 0
KPD3 262243Z 15012KT 22/20 A2993 RMK A01 T02150204  RH  094%=      5-min Rain = 0
KPD3 262244Z 15011KT 22/20 A2993 RMK A01 T02150204  RH  093%=      5-min Rain = 0
KPD3 262245Z 15012KT 22/20 A2993 RMK A01 T02160204  RH  093%=      5-min Rain = 0
KPD3 262246Z 15013KT 22/20 A2993 RMK A01 T02160203  RH  092%=      5-min Rain = 0
KPD3 262247Z 15013KT 22/20 A2992 RMK A01 T02160203  RH  092%=      5-min Rain = 0
KPD3 262248Z 15013KT 22/20 A2992 RMK A01 T02160203  RH  092%=      5-min Rain = 0
KPD3 262249Z 15011KT 22/20 A2992 RMK A01 T02160204  RH  092%=      5-min Rain = 0
KPD3 262250Z 15013KT 22/20 A2992 RMK A01 T02170204  RH  093%=      5-min Rain = 0
KPD3 262251Z 15012KT 22/20 A2992 RMK A01 T02170204  RH  092%=      5-min Rain = 0
KPD3 262252Z 15013KT 22/20 A2992 RMK A01 T02170204  RH  092%=      5-min Rain = 0
KPD3 262253Z 14012KT 22/20 A2991 RMK A01 T02170203  RH  092%=      5-min Rain = 0
KPD3 262254Z 14012KT 22/20 A2991 RMK A01 T02170203  RH  092%=      5-min Rain = 0
KPD3 262255Z 13013KT 22/20 A2991 RMK A01 T02170203  RH  092%=      5-min Rain = 0
KPD3 262256Z 13013KT 22/20 A2991 RMK A01 T02170204  RH  092%=      5-min Rain = 0
KPD3 262257Z 13014KT 22/20 A2991 RMK A01 T02170204  RH  092%=      5-min Rain = 0
KPD3 262258Z 13013KT 22/20 A2991 RMK A01 T02170204  RH  092%=      5-min Rain = 0
KPD3 262259Z 13012KT 22/20 A2991 RMK A01 T02170204  RH  092%=      5-min Rain = 0
KPD3 262300Z 13013KT 22/20 A2991 RMK A01 T02170204  RH  092%=      5-min Rain = 0
KPD3 262301Z 14014KT 22/20 A2991 RMK A01 T02170204  RH  092%=      5-min Rain = 0
KPD3 262302Z 13014KT 22/20 A299 RMK A01 T02170203  RH  092%=      5-min Rain = 0
KPD3 262303Z 13014KT 22/20 A299 RMK A01 T02170203  RH  092%=      5-min Rain = 0
KPD3 262304Z 13014KT 22/20 A299 RMK A01 T02170203  RH  092%=      5-min Rain = 0
KPD3 262305Z 14013KT 22/20 A299 RMK A01 T02170203  RH  092%=      5-min Rain = 0
KPD3 262306Z 14013KT 22/20 A299 RMK A01 T02170203  RH  092%=      5-min Rain = 0
KPD3 262307Z 14013KT 22/20 A2991 RMK A01 T02170204  RH  092%=      5-min Rain = 0
KPD3 262308Z 14013KT 22/20 A2991 RMK A01 T02170203  RH  092%=      5-min Rain = 0
KPD3 262309Z 14012KT 22/20 A2991 RMK A01 T02170203  RH  092%=      5-min Rain = 0
KPD3 262310Z 14014KT 22/20 A2991 RMK A01 T02170203  RH  092%=      5-min Rain = 0
KPD3 262311Z 14012KT 22/20 A2991 RMK A01 T02170204  RH  092%=      5-min Rain = 0
KPD3 262312Z 14014KT 22/20 A2991 RMK A01 T02170204  RH  092%=      5-min Rain = 0
KPD3 262313Z 14014KT 22/20 A2991 RMK A01 T02170204  RH  092%=      5-min Rain = 0
KPD3 262314Z 14013G19KT 22/20 A299 RMK A01 T02170204  RH  092%=      5-min Rain = 0
KPD3 262315Z 13012KT 22/20 A299 RMK A01 T02170204  RH  092%=      5-min Rain = 0
KPD3 262316Z 13014KT 22/20 A299 RMK A01 T02170204  RH  092%=      5-min Rain = 0
KPD3 262317Z 13013KT 22/20 A299 RMK A01 T02170204  RH  092%=      5-min Rain = 0
KPD3 262318Z 13013KT 22/20 A299 RMK A01 T02170204  RH  092%=      5-min Rain = 0
KPD3 262319Z 13014KT 22/20 A299 RMK A01 T02170204  RH  092%=      5-min Rain = 0
KPD3 262320Z 13014KT 22/20 A299 RMK A01 T02180204  RH  092%=      5-min Rain = 0
KPD3 262321Z 13014KT 22/20 A299 RMK A01 T02180204  RH  092%=      5-min Rain = 0
KPD3 262322Z 13014KT 22/20 A299 RMK A01 T02180204  RH  092%=      5-min Rain = 0
KPD3 262323Z 13013KT 22/20 A2989 RMK A01 T02180204  RH  092%=      5-min Rain = 0
KPD3 262324Z 13013KT 22/21 A2989 RMK A01 T02180205  RH  092%=      5-min Rain = 0
KPD3 262325Z 13013KT 22/21 A2989 RMK A01 T02180205  RH  092%=      5-min Rain = 0
KPD3 262326Z 14014KT 22/21 A2989 RMK A01 T02190205  RH  092%=      5-min Rain = 0
KPD3 262327Z 13015KT 22/21 A2989 RMK A01 T02190205  RH  092%=      5-min Rain = 0
KPD3 262328Z 13014KT 22/21 A2989 RMK A01 T02190205  RH  092%=      5-min Rain = 0
KPD3 262329Z 13014KT 22/21 A2989 RMK A01 T02190205  RH  092%=      5-min Rain = 0
KPD3 262330Z 13014KT 22/21 A2989 RMK A01 T02190205  RH  092%=      5-min Rain = 0
KPD3 262331Z 13012KT 22/21 A2989 RMK A01 T02190205  RH  092%=      5-min Rain = 0
KPD3 262332Z 14014KT 22/21 A2989 RMK A01 T02190205  RH  092%=      5-min Rain = 0
KPD3 262333Z 14014KT 22/21 A299 RMK A01 T02190205  RH  092%=      5-min Rain = 0
KPD3 262334Z 14014KT 22/21 A299 RMK A01 T02190205  RH  092%=      5-min Rain = 0
KPD3 262335Z 14013KT 22/21 A299 RMK A01 T02190205  RH  091%=      5-min Rain = 0
KPD3 262336Z 14013KT 22/20 A299 RMK A01 T02190204  RH  091%=      5-min Rain = 0
KPD3 262337Z 13013KT 22/20 A2989 RMK A01 T02190204  RH  091%=      5-min Rain = 0
KPD3 262338Z 13016KT 22/20 A2989 RMK A01 T02190204  RH  091%=      5-min Rain = 0
KPD3 262339Z 13016KT 22/20 A2988 RMK A01 T02200204  RH  091%=      5-min Rain = 0
KPD3 262340Z 13016KT 22/21 A2987 RMK A01 T02210205  RH  090%=      5-min Rain = 0
KPD3 262341Z 12017KT 22/21 A2987 RMK A01 T02220205  RH  090%=      5-min Rain = 0
KPD3 262342Z 12017KT 22/21 A2987 RMK A01 T02240205  RH  089%=      5-min Rain = 0
KPD3 262343Z 12018KT 22/21 A2986 RMK A01 T02240206  RH  089%=      5-min Rain = 0
KPD3 262344Z 13017G22KT 23/21 A2987 RMK A01 T02250206  RH  088%=      5-min Rain = 0
KPD3 262345Z 13018KT 23/21 A2987 RMK A01 T02260206  RH  089%=      5-min Rain = 0
KPD3 262346Z 13015KT 23/21 A2987 RMK A01 T02250206  RH  089%=      5-min Rain = 0
KPD3 262347Z 14016KT 23/21 A2988 RMK A01 T02250205  RH  089%=      5-min Rain = 0
KPD3 262348Z 14013KT 22/21 A2988 RMK A01 T02240205  RH  089%=      5-min Rain = 0
KPD3 262349Z 14016KT 22/21 A2988 RMK A01 T02240205  RH  089%=      5-min Rain = 0
KPD3 262350Z 14014KT 22/21 A2988 RMK A01 T02240205  RH  089%=      5-min Rain = 0
KPD3 262351Z 14014KT 22/21 A2988 RMK A01 T02240206  RH  090%=      5-min Rain = 0
KPD3 262352Z 14014KT 22/21 A2988 RMK A01 T02230206  RH  090%=      5-min Rain = 0
KPD3 262353Z 14014KT 22/21 A2988 RMK A01 T02230205  RH  089%=      5-min Rain = 0
KPD3 262354Z 14013KT 22/21 A2988 RMK A01 T02230205  RH  089%=      5-min Rain = 0
KPD3 262355Z 14013KT 22/21 A2988 RMK A01 T02230205  RH  090%=      5-min Rain = 0
KPD3 262356Z 15016KT 22/21 A2988 RMK A01 T02230205  RH  090%=      5-min Rain = 0
KPD3 262357Z 15015KT 22/20 A2988 RMK A01 T02220203  RH  089%=      5-min Rain = 0
KPD3 262358Z 14014KT 22/20 A2989 RMK A01 T02220203  RH  089%=      5-min Rain = 0
KPD3 262359Z 15011KT 22/20 A2989 RMK A01 T02220204  RH  090%=      5-min Rain = 0
KPD3 270000Z 14013KT 22/20 A2988 RMK A01 T02220204  RH  090%=      5-min Rain = 0
KPD3 270001Z 14016KT 22/20 A2988 RMK A01 T02220204  RH  090%=      5-min Rain = 0
KPD3 270002Z 14014KT 22/20 A2987 RMK A01 T02220204  RH  089%=      5-min Rain = 0
KPD3 270003Z 13015KT 22/20 A2987 RMK A01 T02220203  RH  089%=      5-min Rain = 0
KPD3 270004Z 13016KT 22/20 A2986 RMK A01 T02220203  RH  089%=      5-min Rain = 0
KPD3 270005Z 13016KT 22/20 A2986 RMK A01 T02230203  RH  089%=      5-min Rain = 0
KPD3 270006Z 14012KT 22/20 A2986 RMK A01 T02230204  RH  089%=      5-min Rain = 0
KPD3 270007Z 14016KT 22/20 A2986 RMK A01 T02230204  RH  089%=      5-min Rain = 0
KPD3 270008Z 14014KT 22/20 A2986 RMK A01 T02230204  RH  089%=      5-min Rain = 0
KPD3 270009Z 14015KT 22/20 A2986 RMK A01 T02230204  RH  089%=      5-min Rain = 0
KPD3 270010Z 14013KT 22/20 A2986 RMK A01 T02230203  RH  089%=      5-min Rain = 0
KPD3 270011Z 13016KT 22/20 A2986 RMK A01 T02230204  RH  089%=      5-min Rain = 0
KPD3 270012Z 14017KT 22/20 A2986 RMK A01 T02230203  RH  088%=      5-min Rain = 0
KPD3 270013Z 14016KT 22/20 A2986 RMK A01 T02240203  RH  088%=      5-min Rain = 0
KPD3 270014Z 14012KT 22/20 A2986 RMK A01 T02230204  RH  089%=      5-min Rain = 0
KPD3 270015Z 14015KT 22/21 A2986 RMK A01 T02230205  RH  089%=      5-min Rain = 0
KPD3 270016Z 14017KT 22/20 A2986 RMK A01 T02240204  RH  089%=      5-min Rain = 0
KPD3 270017Z 13016KT 22/20 A2986 RMK A01 T02230204  RH  089%=      5-min Rain = 0
KPD3 270018Z 13016KT 22/20 A2986 RMK A01 T02230204  RH  089%=      5-min Rain = 0
KPD3 270019Z 13015KT 22/20 A2986 RMK A01 T02230204  RH  089%=      5-min Rain = 0
KPD3 270020Z 13016KT 22/20 A2986 RMK A01 T02230204  RH  089%=      5-min Rain = 0
KPD3 270021Z 13016KT 22/20 A2986 RMK A01 T02230203  RH  089%=      5-min Rain = 0
KPD3 270022Z 13015KT 22/20 A2986 RMK A01 T02230204  RH  089%=      5-min Rain = 0
KPD3 270023Z 14013KT 22/20 A2986 RMK A01 T02230204  RH  089%=      5-min Rain = 0
KPD3 270024Z 14012KT 22/20 A2986 RMK A01 T02230204  RH  089%=      5-min Rain = 0
KPD3 270025Z 13014KT 22/20 A2985 RMK A01 T02220204  RH  090%=      5-min Rain = 0
KPD3 270026Z 13013KT 22/20 A2985 RMK A01 T02220204  RH  089%=      5-min Rain = 0
KPD3 270027Z 13013KT 22/20 A2985 RMK A01 T02220204  RH  090%=      5-min Rain = 0
KPD3 270028Z 14014KT 22/20 A2985 RMK A01 T02220204  RH  090%=      5-min Rain = 0
KPD3 270029Z 13012KT 22/20 A2985 RMK A01 T02220204  RH  089%=      5-min Rain = 0
KPD3 270030Z 13013KT 22/20 A2985 RMK A01 T02220204  RH  089%=      5-min Rain = 0
KPD3 270031Z 13012KT 22/20 A2985 RMK A01 T02220204  RH  089%=      5-min Rain = 0
KPD3 270032Z 14012KT 22/20 A2985 RMK A01 T02220204  RH  090%=      5-min Rain = 0
KPD3 270033Z 14011KT 22/20 A2986 RMK A01 T02210204  RH  090%=      5-min Rain = 0
KPD3 270034Z 14011KT 22/20 A2986 RMK A01 T02220204  RH  090%=      5-min Rain = 0
KPD3 270035Z 14015KT 22/20 A2986 RMK A01 T02210204  RH  090%=      5-min Rain = 0
KPD3 270036Z 14013KT 22/20 A2986 RMK A01 T02220203  RH  089%=      5-min Rain = 0
KPD3 270037Z 14012KT 22/20 A2985 RMK A01 T02220203  RH  089%=      5-min Rain = 0
KPD3 270038Z 15014KT 22/20 A2985 RMK A01 T02210203  RH  089%=      5-min Rain = 0
KPD3 270039Z 14011KT 22/20 A2985 RMK A01 T02220203  RH  089%=      5-min Rain = 0
KPD3 270040Z 14013KT 22/20 A2985 RMK A01 T02220203  RH  089%=      5-min Rain = 0
KPD3 270041Z 14014KT 22/20 A2986 RMK A01 T02220203  RH  089%=      5-min Rain = 0
KPD3 270042Z 14013KT 22/20 A2986 RMK A01 T02220203  RH  089%=      5-min Rain = 0
KPD3 270043Z 14013KT 22/20 A2986 RMK A01 T02220203  RH  089%=      5-min Rain = 0
KPD3 270044Z 15011KT 22/20 A2986 RMK A01 T02220203  RH  089%=      5-min Rain = 0
KPD3 270045Z 15011KT 22/20 A2986 RMK A01 T02230203  RH  089%=      5-min Rain = 0
KPD3 270046Z 15010KT 22/20 A2986 RMK A01 T02230204  RH  089%=      5-min Rain = 0
KPD3 270047Z 15012KT 22/20 A2986 RMK A01 T02230204  RH  089%=      5-min Rain = 0
KPD3 270048Z 15013KT 22/20 A2986 RMK A01 T02220203  RH  089%=      5-min Rain = 0
KPD3 270049Z 15016KT 22/20 A2986 RMK A01 T02220203  RH  089%=      5-min Rain = 0
KPD3 270050Z 15014KT 22/20 A2986 RMK A01 T02230202  RH  088%=      5-min Rain = 0
KPD3 270051Z 15014KT 22/20 A2986 RMK A01 T02230202  RH  088%=      5-min Rain = 0
KPD3 270052Z 15013G18KT 22/20 A2985 RMK A01 T02230202  RH  088%=      5-min Rain = 0
KPD3 270053Z 15014KT 22/20 A2985 RMK A01 T02230202  RH  088%=      5-min Rain = 0
KPD3 270054Z 15013KT 22/20 A2985 RMK A01 T02230202  RH  088%=      5-min Rain = 0
KPD3 270055Z 15014G19KT 22/20 A2985 RMK A01 T02230203  RH  088%=      5-min Rain = 0
KPD3 270056Z 15015KT 22/20 A2985 RMK A01 T02230202  RH  088%=      5-min Rain = 0
KPD3 270057Z 15014KT 22/20 A2985 RMK A01 T02230202  RH  088%=      5-min Rain = 0
KPD3 270058Z 15014KT 22/20 A2985 RMK A01 T02230203  RH  088%=      5-min Rain = 0
KPD3 270059Z 15012KT 22/20 A2985 RMK A01 T02230203  RH  088%=      5-min Rain = 0
KPD3 270100Z 14013KT 22/20 A2985 RMK A01 T02220203  RH  089%=      5-min Rain = 0
KPD3 270101Z 14012KT 22/20 A2984 RMK A01 T02220203  RH  089%=      5-min Rain = 0
KPD3 270102Z 14015KT 22/20 A2984 RMK A01 T02220203  RH  089%=      5-min Rain = 0
KPD3 270103Z 14015KT 22/20 A2984 RMK A01 T02210202  RH  089%=      5-min Rain = 0
KPD3 270104Z 13014KT 22/20 A2984 RMK A01 T02220202  RH  089%=      5-min Rain = 0
KPD3 270105Z 14012KT 22/20 A2984 RMK A01 T02210202  RH  089%=      5-min Rain = 0
KPD3 270106Z 14013KT 22/20 A2984 RMK A01 T02210203  RH  089%=      5-min Rain = 0
KPD3 270107Z 14012KT 22/20 A2983 RMK A01 T02210203  RH  089%=      5-min Rain = 0
KPD3 270108Z 13014KT 22/20 A2983 RMK A01 T02210202  RH  089%=      5-min Rain = 0
KPD3 270109Z 14013KT 22/20 A2984 RMK A01 T02210202  RH  089%=      5-min Rain = 0
KPD3 270110Z 14012KT 22/20 A2984 RMK A01 T02210202  RH  089%=      5-min Rain = 0
KPD3 270111Z 14011KT 22/20 A2984 RMK A01 T02210203  RH  090%=      5-min Rain = 0
KPD3 270112Z 13015KT 22/20 A2984 RMK A01 T02210203  RH  090%=      5-min Rain = 0
KPD3 270113Z 14014KT 22/20 A2984 RMK A01 T02210202  RH  089%=      5-min Rain = 0
KPD3 270114Z 14012KT 22/20 A2984 RMK A01 T02210202  RH  089%=      5-min Rain = 0
KPD3 270115Z 14013KT 22/20 A2984 RMK A01 T02210203  RH  089%=      5-min Rain = 0
KPD3 270116Z 14011KT 22/20 A2984 RMK A01 T02210202  RH  089%=      5-min Rain = 0
KPD3 270117Z 14011KT 22/20 A2984 RMK A01 T02210203  RH  089%=      5-min Rain = 0
KPD3 270118Z 14009KT 22/20 A2985 RMK A01 T02200203  RH  090%=      5-min Rain = 0
KPD3 270119Z 14008KT 22/20 A2985 RMK A01 T02200203  RH  090%=      5-min Rain = 0
KPD3 270120Z 14009KT 22/20 A2985 RMK A01 T02200203  RH  090%=      5-min Rain = 0
KPD3 270121Z 14009KT 22/20 A2985 RMK A01 T02200203  RH  090%=      5-min Rain = 0
KPD3 270122Z 14009KT 22/20 A2985 RMK A01 T02200203  RH  090%=      5-min Rain = 0
KPD3 270123Z 15009KT 22/20 A2986 RMK A01 T02190202  RH  090%=      5-min Rain = 0
KPD3 270124Z 15009KT 22/20 A2986 RMK A01 T02200203  RH  090%=      5-min Rain = 0
KPD3 270125Z 15011KT 22/20 A2986 RMK A01 T02200203  RH  090%=      5-min Rain = 0
KPD3 270126Z 15009KT 22/20 A2986 RMK A01 T02200203  RH  090%=      5-min Rain = 0
KPD3 270127Z 15009KT 22/20 A2986 RMK A01 T02210203  RH  090%=      5-min Rain = 0
KPD3 270128Z 15009KT 22/20 A2987 RMK A01 T02210203  RH  090%=      5-min Rain = 0
KPD3 270129Z 16008KT 22/20 A2987 RMK A01 T02210203  RH  090%=      5-min Rain = 0
KPD3 270130Z 16010KT 22/20 A2987 RMK A01 T02210203  RH  090%=      5-min Rain = 0
KPD3 270131Z 16012KT 22/20 A2987 RMK A01 T02210203  RH  090%=      5-min Rain = 0
KPD3 270132Z 16011KT 22/20 A2987 RMK A01 T02220203  RH  089%=      5-min Rain = 0
KPD3 270133Z 16010KT 22/20 A2987 RMK A01 T02220203  RH  089%=      5-min Rain = 0
KPD3 270134Z 16008KT 22/20 A2988 RMK A01 T02220203  RH  089%=      5-min Rain = 0
KPD3 270135Z 16009KT 22/20 A2988 RMK A01 T02220203  RH  089%=      5-min Rain = 0
KPD3 270136Z 16009KT 22/20 A2988 RMK A01 T02220204  RH  089%=      5-min Rain = 0
KPD3 270137Z 16008KT 22/20 A2988 RMK A01 T02220204  RH  089%=      5-min Rain = 0
KPD3 270138Z 16009KT 22/20 A2988 RMK A01 T02220204  RH  089%=      5-min Rain = 0
KPD3 270139Z 15008KT 22/20 A2988 RMK A01 T02220204  RH  089%=      5-min Rain = 0
KPD3 270140Z 16008KT 22/20 A2988 RMK A01 T02220204  RH  089%=      5-min Rain = 0
KPD3 270141Z 16007KT 22/20 A2988 RMK A01 T02220204  RH  089%=      5-min Rain = 0
KPD3 270142Z 16007KT 22/20 A2989 RMK A01 T02220204  RH  090%=      5-min Rain = 0
KPD3 270143Z 16008KT 22/20 A2989 RMK A01 T02220204  RH  090%=      5-min Rain = 0
KPD3 270144Z 17006KT 22/20 A2989 RMK A01 T02220204  RH  090%=      5-min Rain = 0
KPD3 270145Z 16007KT 22/20 A2989 RMK A01 T02220204  RH  090%=      5-min Rain = 0
KPD3 270146Z 17007KT 22/20 A2989 RMK A01 T02210204  RH  090%=      5-min Rain = 0
KPD3 270147Z 16008KT 22/20 A2988 RMK A01 T02210204  RH  090%=      5-min Rain = 0
KPD3 270148Z 16008KT 22/20 A2988 RMK A01 T02210204  RH  090%=      5-min Rain = 0
KPD3 270149Z 15007KT 22/20 A2988 RMK A01 T02210204  RH  090%=      5-min Rain = 0
KPD3 270150Z 15007KT 22/20 A2988 RMK A01 T02210204  RH  090%=      5-min Rain = 0
KPD3 270151Z 15007KT 22/20 A2988 RMK A01 T02210204  RH  090%=      5-min Rain = 0
KPD3 270152Z 15008KT 22/20 A2988 RMK A01 T02220204  RH  090%=      5-min Rain = 0
KPD3 270153Z 15009KT 22/20 A2988 RMK A01 T02220204  RH  090%=      5-min Rain = 0
KPD3 270154Z 14008KT 22/20 A2988 RMK A01 T02220204  RH  089%=      5-min Rain = 0
KPD3 270155Z 15008KT 22/20 A2988 RMK A01 T02220204  RH  089%=      5-min Rain = 0
KPD3 270156Z 14008KT 22/20 A2988 RMK A01 T02220204  RH  090%=      5-min Rain = 0
KPD3 270157Z 14009KT 22/20 A2987 RMK A01 T02220204  RH  090%=      5-min Rain = 0
KPD3 270158Z 14008KT 22/20 A2987 RMK A01 T02220204  RH  090%=      5-min Rain = 0
KPD3 270159Z 14008KT 22/20 A2987 RMK A01 T02210204  RH  090%=      5-min Rain = 0
KPD3 270200Z 14008KT 22/20 A2987 RMK A01 T02210204  RH  090%=      5-min Rain = 0
KPD3 270201Z 14007KT 22/20 A2987 RMK A01 T02210204  RH  090%=      5-min Rain = 0
KPD3 270202Z 14007KT 22/20 A2987 RMK A01 T02210204  RH  090%=      5-min Rain = 0
KPD3 270203Z 14007KT 22/20 A2987 RMK A01 T02200204  RH  090%=      5-min Rain = 0
KPD3 270204Z 14006KT 22/20 A2987 RMK A01 T02200204  RH  090%=      5-min Rain = 0
KPD3 270205Z 14007KT 22/20 A2987 RMK A01 T02200204  RH  090%=      5-min Rain = 0
KPD3 270206Z 15007KT 22/20 A2987 RMK A01 T02200204  RH  090%=      5-min Rain = 0
KPD3 270207Z 15006KT 22/20 A2987 RMK A01 T02200204  RH  091%=      5-min Rain = 0
KPD3 270208Z 15006KT 22/20 A2987 RMK A01 T02200203  RH  090%=      5-min Rain = 0
KPD3 270209Z 15006KT 22/20 A2987 RMK A01 T02200203  RH  090%=      5-min Rain = 0
KPD3 270210Z 15006KT 22/20 A2987 RMK A01 T02200203  RH  090%=      5-min Rain = 0
KPD3 270211Z 14007KT 22/20 A2987 RMK A01 T02200203  RH  090%=      5-min Rain = 0
KPD3 270212Z 15007KT 22/20 A2987 RMK A01 T02200203  RH  091%=      5-min Rain = 0
KPD3 270213Z 15008KT 22/20 A2987 RMK A01 T02200204  RH  091%=      5-min Rain = 0
KPD3 270214Z 15007KT 22/20 A2987 RMK A01 T02190203  RH  091%=      5-min Rain = 0
KPD3 270215Z 14007KT 22/20 A2987 RMK A01 T02190203  RH  091%=      5-min Rain = 0
KPD3 270216Z 14007KT 22/20 A2987 RMK A01 T02190203  RH  091%=      5-min Rain = 0
KPD3 270217Z 14007KT 22/20 A2988 RMK A01 T02190203  RH  091%=      5-min Rain = 0
KPD3 270218Z 14007KT 22/20 A2988 RMK A01 T02190203  RH  090%=      5-min Rain = 0
KPD3 270219Z 15006KT 22/20 A2988 RMK A01 T02190203  RH  090%=      5-min Rain = 0
KPD3 270220Z 14006KT 22/20 A2988 RMK A01 T02200203  RH  090%=      5-min Rain = 0
KPD3 270221Z 14006KT 22/20 A2988 RMK A01 T02200203  RH  090%=      5-min Rain = 0
KPD3 270222Z 14006KT 22/20 A2988 RMK A01 T02200203  RH  090%=      5-min Rain = 0
KPD3 270223Z 14006KT 22/20 A2988 RMK A01 T02200203  RH  090%=      5-min Rain = 0
KPD3 270224Z 14005KT 22/20 A2988 RMK A01 T02200203  RH  090%=      5-min Rain = 0
KPD3 270225Z 14006KT 22/20 A2988 RMK A01 T02190203  RH  090%=      5-min Rain = 0
KPD3 270226Z 14006KT 22/20 A2988 RMK A01 T02190203  RH  090%=      5-min Rain = 0
KPD3 270227Z 14007KT 22/20 A2989 RMK A01 T02190203  RH  090%=      5-min Rain = 0
KPD3 270228Z 14006KT 22/20 A2989 RMK A01 T02200203  RH  090%=      5-min Rain = 0
KPD3 270229Z 14005KT 22/20 A2989 RMK A01 T02200203  RH  090%=      5-min Rain = 0
KPD3 270230Z 14006KT 22/20 A2989 RMK A01 T02200203  RH  090%=      5-min Rain = 0
KPD3 270231Z 15008KT 22/20 A2989 RMK A01 T02200203  RH  090%=      5-min Rain = 0
KPD3 270232Z 14006KT 22/20 A2989 RMK A01 T02200202  RH  090%=      5-min Rain = 0
KPD3 270233Z 14005KT 22/20 A2989 RMK A01 T02200202  RH  089%=      5-min Rain = 0
KPD3 270234Z 14005KT 22/20 A2989 RMK A01 T02200203  RH  090%=      5-min Rain = 0
KPD3 270235Z 14005KT 22/20 A2989 RMK A01 T02200203  RH  090%=      5-min Rain = 0
KPD3 270236Z 14005KT 22/20 A2989 RMK A01 T02200203  RH  090%=      5-min Rain = 0
KPD3 270237Z 15005KT 22/20 A2989 RMK A01 T02200203  RH  090%=      5-min Rain = 0
KPD3 270238Z 15006KT 22/20 A2989 RMK A01 T02200203  RH  090%=      5-min Rain = 0
KPD3 270239Z 14006KT 22/20 A2989 RMK A01 T02190202  RH  090%=      5-min Rain = 0
KPD3 270240Z 14005KT 22/20 A2989 RMK A01 T02190202  RH  090%=      5-min Rain = 0
KPD3 270241Z 14005KT 22/20 A2989 RMK A01 T02190203  RH  090%=      5-min Rain = 0
KPD3 270242Z 14006KT 22/20 A2989 RMK A01 T02190202  RH  090%=      5-min Rain = 0
KPD3 270243Z 14006KT 22/20 A2989 RMK A01 T02190202  RH  090%=      5-min Rain = 0
KPD3 270244Z 14005KT 22/20 A2989 RMK A01 T02190202  RH  090%=      5-min Rain = 0
KPD3 270245Z 14005KT 22/20 A2989 RMK A01 T02190202  RH  090%=      5-min Rain = 0
KPD3 270246Z 15005KT 22/20 A2989 RMK A01 T02190202  RH  090%=      5-min Rain = 0
KPD3 270247Z 15004KT 22/20 A2989 RMK A01 T02190202  RH  090%=      5-min Rain = 0
KPD3 270248Z 14004KT 22/20 A2989 RMK A01 T02190202  RH  090%=      5-min Rain = 0
KPD3 270249Z 14004KT 22/20 A2989 RMK A01 T02180202  RH  090%=      5-min Rain = 0
KPD3 270250Z 14004KT 22/20 A2989 RMK A01 T02180202  RH  091%=      5-min Rain = 0
KPD3 270251Z 13003KT 22/20 A2989 RMK A01 T02180202  RH  091%=      5-min Rain = 0
KPD3 270252Z 13004KT 22/20 A2989 RMK A01 T02170202  RH  091%=      5-min Rain = 0
KPD3 270253Z 13005KT 22/20 A2989 RMK A01 T02170202  RH  091%=      5-min Rain = 0
KPD3 270254Z 13004KT 22/20 A2989 RMK A01 T02170202  RH  091%=      5-min Rain = 0
KPD3 270255Z 12005KT 22/20 A2989 RMK A01 T02170201  RH  091%=      5-min Rain = 0
KPD3 270256Z 13004KT 22/20 A2988 RMK A01 T02170201  RH  091%=      5-min Rain = 0
KPD3 270257Z 12004KT 22/20 A2988 RMK A01 T02170201  RH  091%=      5-min Rain = 0
KPD3 270258Z 12003KT 22/20 A2988 RMK A01 T02170202  RH  091%=      5-min Rain = 0
KPD3 270259Z 11003KT 22/20 A2989 RMK A01 T02170202  RH  091%=      5-min Rain = 0
KPD3 270300Z 10002KT 22/20 A2989 RMK A01 T02170202  RH  091%=      5-min Rain = 0
KPD3 270301Z 10003KT 22/20 A2989 RMK A01 T02160202  RH  092%=      5-min Rain = 0
KPD3 270302Z 10002KT 22/20 A2989 RMK A01 T02160202  RH  092%=      5-min Rain = 0
KPD3 270303Z 10003KT 22/20 A2989 RMK A01 T02160202  RH  092%=      5-min Rain = 0
KPD3 270304Z 10002KT 22/20 A2989 RMK A01 T02160202  RH  092%=      5-min Rain = 0
KPD3 270305Z 10002KT 22/20 A2989 RMK A01 T02160202  RH  091%=      5-min Rain = 0
KPD3 270306Z 08001KT 22/20 A2989 RMK A01 T02160201  RH  091%=      5-min Rain = 0
KPD3 270307Z 08001KT 22/20 A299 RMK A01 T02160201  RH  091%=      5-min Rain = 0
KPD3 270308Z 10001KT 22/20 A299 RMK A01 T02160201  RH  091%=      5-min Rain = 0
KPD3 270309Z 09001KT 22/20 A299 RMK A01 T02170201  RH  091%=      5-min Rain = 0
KPD3 270310Z 09002KT 22/20 A299 RMK A01 T02170201  RH  091%=      5-min Rain = 0
KPD3 270311Z 09001KT 22/20 A299 RMK A01 T02170201  RH  091%=      5-min Rain = 0
KPD3 270312Z 09002KT 22/20 A299 RMK A01 T02170201  RH  091%=      5-min Rain = 0
KPD3 270313Z 09002KT 22/20 A299 RMK A01 T02170201  RH  091%=      5-min Rain = 0
KPD3 270314Z 06002KT 22/20 A299 RMK A01 T02180202  RH  091%=      5-min Rain = 0
KPD3 270315Z 08001KT 22/20 A299 RMK A01 T02170202  RH  091%=      5-min Rain = 0
KPD3 270316Z 08001KT 22/20 A299 RMK A01 T02170201  RH  091%=      5-min Rain = 0
KPD3 270317Z 05001KT 22/20 A299 RMK A01 T02170201  RH  091%=      5-min Rain = 0
KPD3 270318Z 04001KT 22/20 A299 RMK A01 T02170202  RH  091%=      5-min Rain = 0
KPD3 270319Z 04002KT 22/20 A299 RMK A01 T02170202  RH  091%=      5-min Rain = 0
KPD3 270320Z 04002KT 22/20 A299 RMK A01 T02160201  RH  091%=      5-min Rain = 0
KPD3 270321Z 04003KT 22/20 A299 RMK A01 T02160202  RH  091%=      5-min Rain = 0
KPD3 270322Z 04003KT 22/20 A299 RMK A01 T02160202  RH  092%=      5-min Rain = 0
KPD3 270323Z 04003KT 22/20 A299 RMK A01 T02150202  RH  092%=      5-min Rain = 0
KPD3 270324Z 04003KT 22/20 A299 RMK A01 T02150202  RH  092%=      5-min Rain = 0
KPD3 270325Z 03004KT 22/20 A299 RMK A01 T02150201  RH  092%=      5-min Rain = 0
KPD3 270326Z 03004KT 22/20 A299 RMK A01 T02150202  RH  092%=      5-min Rain = 0
KPD3 270327Z 04003KT 21/20 A299 RMK A01 T02140202  RH  093%=      5-min Rain = 0
KPD3 270328Z 02003KT 21/20 A299 RMK A01 T02140201  RH  093%=      5-min Rain = 0
KPD3 270329Z 02003KT 21/20 A299 RMK A01 T02140202  RH  093%=      5-min Rain = 0
KPD3 270330Z 02003KT 21/20 A299 RMK A01 T02140202  RH  093%=      5-min Rain = 0
KPD3 270331Z 02003KT 21/20 A299 RMK A01 T02140202  RH  093%=      5-min Rain = 0
KPD3 270332Z 01003KT 21/20 A299 RMK A01 T02130201  RH  093%=      5-min Rain = 0
KPD3 270333Z 01002KT 21/20 A299 RMK A01 T02130202  RH  093%=      5-min Rain = 0
KPD3 270334Z 01002KT 21/20 A299 RMK A01 T02130201  RH  093%=      5-min Rain = 0
KPD3 270335Z 35002KT 21/20 A2991 RMK A01 T02130201  RH  093%=      5-min Rain = 0
KPD3 270336Z 34003KT 21/20 A2991 RMK A01 T02130201  RH  093%=      5-min Rain = 0
KPD3 270337Z 33003KT 21/20 A2991 RMK A01 T02130201  RH  093%=      5-min Rain = 0
KPD3 270338Z 33003KT 21/20 A2991 RMK A01 T02130201  RH  093%=      5-min Rain = 0
KPD3 270339Z 32003KT 21/20 A2991 RMK A01 T02130201  RH  093%=      5-min Rain = 0
KPD3 270340Z 31003KT 21/20 A2991 RMK A01 T02130201  RH  093%=      5-min Rain = 0
KPD3 270341Z 31004KT 21/20 A2991 RMK A01 T02130201  RH  093%=      5-min Rain = 0
KPD3 270342Z 31004KT 21/20 A2992 RMK A01 T02130202  RH  093%=      5-min Rain = 0
KPD3 270343Z 30004KT 21/20 A2991 RMK A01 T02130202  RH  093%=      5-min Rain = 0
KPD3 270344Z 30005KT 21/20 A2992 RMK A01 T02130202  RH  093%=      5-min Rain = 0
KPD3 270345Z 30006KT 21/20 A2992 RMK A01 T02130202  RH  094%=      5-min Rain = 0
KPD3 270346Z 29006KT 21/20 A2992 RMK A01 T02120202  RH  094%=      5-min Rain = 0
KPD3 270347Z 29006KT 21/20 A2992 RMK A01 T02120202  RH  094%=      5-min Rain = 0
KPD3 270348Z 29006KT 21/20 A2992 RMK A01 T02120202  RH  094%=      5-min Rain = 0
KPD3 270349Z 29006KT 21/20 A2992 RMK A01 T02120202  RH  094%=      5-min Rain = 0
KPD3 270350Z 29007KT 21/20 A2992 RMK A01 T02120202  RH  094%=      5-min Rain = 0
KPD3 270351Z 30007KT 21/20 A2992 RMK A01 T02120202  RH  094%=      5-min Rain = 0
KPD3 270352Z 30006KT 21/20 A2992 RMK A01 T02120202  RH  094%=      5-min Rain = 0
KPD3 270353Z 30006KT 21/20 A2993 RMK A01 T02120202  RH  094%=      5-min Rain = 0
KPD3 270354Z 30006KT 21/20 A2993 RMK A01 T02120203  RH  094%=      5-min Rain = 0
KPD3 270355Z 30005KT 21/20 A2992 RMK A01 T02120202  RH  094%=      5-min Rain = 0
KPD3 270356Z 30005KT 21/20 A2992 RMK A01 T02120202  RH  094%=      5-min Rain = 0
KPD3 270357Z 30004KT 21/20 A2992 RMK A01 T02130203  RH  094%=      5-min Rain = 0
KPD3 270358Z 30004KT 21/20 A2992 RMK A01 T02120202  RH  094%=      5-min Rain = 0
KPD3 270359Z 28003KT 21/20 A2993 RMK A01 T02120202  RH  094%=      5-min Rain = 0
KPD3 270400Z 26003KT 21/20 A2993 RMK A01 T02120202  RH  094%=      5-min Rain = 0
KPD3 270401Z 25002KT 21/20 A2993 RMK A01 T02130202  RH  094%=      5-min Rain = 0
KPD3 270402Z 24001KT 21/20 A2992 RMK A01 T02130203  RH  094%=      5-min Rain = 0
KPD3 270403Z 23000KT 21/20 A2992 RMK A01 T02130202  RH  094%=      5-min Rain = 0
KPD3 270404Z 04001KT 21/20 A2991 RMK A01 T02130202  RH  094%=      5-min Rain = 0
KPD3 270405Z 06004KT 21/20 A299 RMK A01 T02130202  RH  094%=      5-min Rain = 0
KPD3 270406Z 07005KT 21/20 A2989 RMK A01 T02120202  RH  094%=      5-min Rain = 0
KPD3 270407Z 09005KT 21/20 A2989 RMK A01 T02110202  RH  094%=      5-min Rain = 0
KPD3 270408Z 08005KT 21/20 A299 RMK A01 T02110202  RH  095%=      5-min Rain = 0
KPD3 270409Z 07004KT 21/20 A299 RMK A01 T02100202  RH  095%=      5-min Rain = 0.01
KPD3 270410Z 05004KT 21/20 A299 RMK A01 T02100202  RH  095%=      5-min Rain = 0
KPD3 270411Z 04003KT 21/20 A299 RMK A01 T02100202  RH  095%=      5-min Rain = 0
KPD3 270412Z 02003KT 21/20 A2991 RMK A01 T02100202  RH  095%=      5-min Rain = 0
KPD3 270413Z 02004KT 21/20 A2991 RMK A01 T02090202  RH  095%=      5-min Rain = 0
KPD3 270414Z 02005KT 21/20 A2991 RMK A01 T02090201  RH  095%=      5-min Rain = 0
KPD3 270415Z 02006KT 21/20 A299 RMK A01 T02090202  RH  095%=      5-min Rain = 0
KPD3 270416Z 03006KT 21/20 A299 RMK A01 T02090202  RH  096%=      5-min Rain = 0
KPD3 270417Z 04006KT 21/20 A299 RMK A01 T02090202  RH  096%=      5-min Rain = 0
KPD3 270418Z 04005KT 21/20 A299 RMK A01 T02090202  RH  096%=      5-min Rain = 0
KPD3 270419Z 04004KT 21/20 A299 RMK A01 T02090202  RH  096%=      5-min Rain = 0
KPD3 270420Z 05003KT 21/20 A299 RMK A01 T02090202  RH  096%=      5-min Rain = 0
KPD3 270421Z 05003KT 21/20 A299 RMK A01 T02090201  RH  096%=      5-min Rain = 0
KPD3 270422Z 05003KT 21/20 A299 RMK A01 T02090201  RH  095%=      5-min Rain = 0
KPD3 270423Z 05003KT 21/20 A299 RMK A01 T02100201  RH  095%=      5-min Rain = 0
KPD3 270424Z 08003KT 21/20 A299 RMK A01 T02100201  RH  094%=      5-min Rain = 0
KPD3 270425Z 09002KT 21/20 A299 RMK A01 T02120200  RH  093%=      5-min Rain = 0
KPD3 270426Z 08003KT 21/20 A299 RMK A01 T02140200  RH  092%=      5-min Rain = 0
KPD3 270427Z 08004KT 21/20 A299 RMK A01 T02140200  RH  092%=      5-min Rain = 0
KPD3 270428Z 10005KT 22/20 A299 RMK A01 T02150201  RH  092%=      5-min Rain = 0
KPD3 270429Z 11005KT 21/20 A299 RMK A01 T02140201  RH  092%=      5-min Rain = 0
KPD3 270430Z 12006KT 21/20 A2989 RMK A01 T02140200  RH  091%=      5-min Rain = 0
KPD3 270431Z 11007KT 22/20 A2988 RMK A01 T02150199  RH  091%=      5-min Rain = 0
KPD3 270432Z 10009KT 22/20 A2987 RMK A01 T02160199  RH  090%=      5-min Rain = 0
KPD3 270433Z 11014KT 22/20 A2986 RMK A01 T02150198  RH  090%=      5-min Rain = 0
KPD3 270434Z 11012KT 22/20 A2986 RMK A01 T02170197  RH  089%=      5-min Rain = 0
KPD3 270435Z 12010KT 22/20 A2986 RMK A01 T02180196  RH  087%=      5-min Rain = 0
KPD3 270436Z 13011KT 22/20 A2986 RMK A01 T02200197  RH  087%=      5-min Rain = 0
KPD3 270437Z 14009KT 22/20 A2986 RMK A01 T02200196  RH  086%=      5-min Rain = 0
KPD3 270438Z 15010KT 22/20 A2987 RMK A01 T02200196  RH  086%=      5-min Rain = 0
KPD3 270439Z 14008KT 22/20 A2987 RMK A01 T02200197  RH  087%=      5-min Rain = 0
KPD3 270440Z 15007KT 22/20 A2987 RMK A01 T02200197  RH  087%=      5-min Rain = 0
KPD3 270441Z 14007KT 22/20 A2987 RMK A01 T02190197  RH  088%=      5-min Rain = 0
KPD3 270442Z 14008KT 22/20 A2986 RMK A01 T02180197  RH  088%=      5-min Rain = 0
KPD3 270443Z 12011KT 22/20 A2986 RMK A01 T02180197  RH  088%=      5-min Rain = 0
KPD3 270444Z 12009KT 22/20 A2986 RMK A01 T02170197  RH  088%=      5-min Rain = 0
KPD3 270445Z 13007KT 22/20 A2986 RMK A01 T02170197  RH  088%=      5-min Rain = 0
KPD3 270446Z 13007KT 22/20 A2986 RMK A01 T02170197  RH  089%=      5-min Rain = 0
KPD3 270447Z 13008KT 22/20 A2986 RMK A01 T02160197  RH  089%=      5-min Rain = 0
KPD3 270448Z 14007KT 22/20 A2987 RMK A01 T02170197  RH  088%=      5-min Rain = 0
KPD3 270449Z 15007KT 22/20 A2988 RMK A01 T02170197  RH  088%=      5-min Rain = 0
KPD3 270450Z 14006KT 22/20 A2988 RMK A01 T02170196  RH  088%=      5-min Rain = 0
KPD3 270451Z 15006KT 22/20 A2988 RMK A01 T02170197  RH  088%=      5-min Rain = 0
KPD3 270452Z 14007KT 22/20 A2988 RMK A01 T02170197  RH  088%=      5-min Rain = 0
KPD3 270453Z 14008KT 22/20 A2988 RMK A01 T02170197  RH  089%=      5-min Rain = 0
KPD3 270454Z 13009KT 22/20 A2988 RMK A01 T02160197  RH  089%=      5-min Rain = 0
KPD3 270455Z 12010KT 22/20 A2987 RMK A01 T02150197  RH  089%=      5-min Rain = 0
KPD3 270456Z 11011KT 22/20 A2986 RMK A01 T02150197  RH  089%=      5-min Rain = 0
KPD3 270457Z 10014KT 22/20 A2985 RMK A01 T02150197  RH  089%=      5-min Rain = 0
KPD3 270458Z 11016KT 21/20 A2985 RMK A01 T02140197  RH  090%=      5-min Rain = 0
KPD3 270459Z 11014KT 21/20 A2985 RMK A01 T02140197  RH  090%=      5-min Rain = 0

Page generated in 0.0379 seconds.